GFSSGP_con_3kmhel_003.txt.gz
Helicity
44 34 17 42 67 75 62 62 66 104 103 27 28 49 59 85 75 94 50 8 13 32 17 -24 -10 47 58 51 39 34 34 33 16 27 38 26 18 4 3 -8 7 11 13 26 25 33 24 22 22
45 34 44 58 96 97 64 59 72 81 147 152 53 48 82 60 18 32 77 14 13 20 19 -15 7 52 57 43 37 32 31 36 26 17 28 12 -10 10 4 1 27 18 28 33 30 43 52 56 48
36 55 65 103 101 69 55 46 61 109 139 134 125 81 95 86 55 43 43 5 36 21 15 -19 40 54 56 57 44 30 27 29 26 13 -6 -19 -4 2 14 13 24 39 33 36 42 45 51 59 60
85 72 113 139 74 61 65 72 72 130 107 129 148 169 56 36 45 64 73 64 48 86 47 6 28 52 57 57 51 33 26 24 14 -13 -52 -40 -23 -23 -4 18 52 40 29 30 37 37 44 47 45
142 127 160 135 66 57 63 53 45 56 107 136 138 194 96 34 36 50 60 59 107 79 38 -1 34 35 58 62 48 35 24 15 -0 -18 -53 -64 -25 -19 -8 20 46 29 20 5 10 13 18 17 19
185 175 200 131 56 41 47 47 61 54 67 121 90 139 131 33 24 32 43 57 65 71 52 12 19 24 56 51 50 35 23 14 -4 -28 -53 -72 -61 -35 -5 28 35 26 5 -7 -0 -6 2 6 9
179 213 177 120 55 40 24 41 61 61 65 90 94 109 101 70 31 39 61 71 66 68 78 27 19 26 38 57 68 39 24 19 7 -15 -37 -50 -67 -54 -7 8 16 8 -8 -12 -13 -10 -6 4 18
180 196 155 114 53 26 24 32 50 69 86 82 82 118 115 88 46 53 75 83 82 84 74 44 32 36 37 56 73 48 28 32 31 14 7 -16 -34 -29 -9 10 12 10 2 -1 1 3 24 45 52
174 210 140 126 104 106 56 42 68 103 111 125 118 115 103 97 82 102 94 89 76 79 73 56 43 49 48 70 60 53 39 40 62 53 42 15 -4 -6 6 19 29 25 22 19 29 42 58 60 61
184 203 131 130 119 83 83 70 69 108 140 139 169 149 108 73 88 114 105 80 85 62 41 51 53 48 55 76 60 56 55 67 65 55 45 33 33 26 30 38 44 37 43 52 74 76 66 56 40
169 120 147 121 87 107 66 61 43 81 76 86 127 166 162 119 85 86 82 71 78 57 61 56 73 74 56 75 85 77 61 77 72 67 64 58 53 51 53 50 55 50 70 62 66 63 59 65 58
151 106 85 76 106 78 47 43 52 65 56 60 96 135 153 186 106 69 74 73 69 65 67 50 84 96 60 85 93 86 71 75 76 68 76 67 64 61 74 78 85 82 76 77 79 66 62 61 57
136 95 94 101 123 111 78 41 29 -5 40 87 116 112 141 162 112 67 68 83 69 57 66 73 77 102 88 90 98 86 72 74 79 75 80 82 70 85 101 111 105 89 86 84 74 70 66 66 66
132 112 99 66 46 92 92 39 100 31 24 66 81 119 125 134 114 84 53 58 67 59 73 81 92 111 112 106 95 83 88 94 88 85 84 84 97 123 134 142 124 104 85 73 69 66 57 56 55
102 90 64 68 62 82 83 60 78 49 94 87 90 93 121 131 142 88 70 54 58 52 43 54 93 126 129 115 104 106 106 119 104 105 111 141 156 161 149 138 122 102 85 71 61 51 51 62 61
87 71 75 85 111 99 118 60 132 147 105 83 73 115 107 113 128 106 81 58 64 67 51 38 64 116 137 156 167 144 146 161 153 156 168 179 182 159 160 150 129 88 69 52 46 52 45 46 44
108 106 81 103 84 116 87 73 79 99 121 78 95 119 103 119 132 112 86 58 59 56 44 57 52 80 154 221 234 223 216 224 223 220 220 195 179 175 162 134 99 72 61 57 46 39 30 35 50
69 110 89 99 95 133 106 68 65 77 86 76 88 117 112 117 137 153 108 75 70 55 57 76 101 119 215 333 330 336 308 312 285 261 254 230 177 175 151 124 96 71 68 60 43 36 16 6 32
150 115 97 99 96 77 64 30 54 71 77 65 53 27 63 84 117 127 108 99 79 106 114 94 138 189 311 377 360 337 308 301 292 303 258 234 188 177 150 119 92 77 68 44 22 -8 11 18 33
92 78 82 78 83 97 58 -34 21 58 64 68 41 20 22 54 63 92 98 79 75 90 115 107 120 189 267 353 361 330 321 311 309 303 263 238 198 181 145 104 79 65 33 23 23 19 -4 -0 11
81 86 92 73 93 125 80 -31 -17 12 57 114 104 68 53 52 68 65 76 91 108 97 119 124 147 196 274 393 481 486 440 372 329 297 273 220 204 170 140 112 89 64 30 19 14 4 16 27 12
86 160 118 118 141 114 133 56 33 64 45 61 91 65 64 70 87 89 77 105 117 115 140 124 152 196 302 383 372 352 292 244 232 247 232 240 188 170 145 120 91 68 41 24 3 -11 -2 -4 29
171 149 162 175 156 166 143 188 14 59 71 66 75 65 71 69 103 93 97 110 142 158 179 161 162 215 257 286 287 352 295 244 301 290 276 224 199 174 144 116 98 85 54 31 15 4 9 9 6
199 209 211 265 234 237 164 127 -22 -12 -71 -26 22 43 60 58 80 150 111 115 186 197 190 172 191 198 232 251 257 294 280 279 306 266 238 193 188 168 144 124 112 90 64 43 29 23 25 26 24
225 270 233 256 364 324 71 -3 143 31 93 46 72 22 60 119 65 105 123 127 210 208 191 190 191 200 225 215 235 214 214 228 233 230 198 194 182 157 130 126 108 87 71 62 52 45 45 51 50
237 260 303 268 216 139 130 112 107 -88 -10 -42 13 51 94 41 83 105 115 127 186 231 206 187 181 217 214 209 205 174 201 243 270 215 186 179 173 153 140 139 122 107 96 85 74 63 64 67 68
221 252 197 269 218 200 173 124 98 66 34 3 71 108 134 11 99 99 161 112 166 208 184 177 182 196 206 189 229 220 225 302 265 217 208 202 185 166 156 143 136 129 119 105 90 79 85 89 96
219 189 210 216 185 154 134 80 80 69 1 34 52 75 132 119 97 97 143 155 150 185 202 176 173 196 198 186 166 196 235 280 266 234 225 208 195 181 166 165 159 148 133 120 105 108 110 109 113
232 270 194 164 183 205 102 50 -2 -18 -6 78 37 43 117 148 107 113 156 141 168 222 213 202 198 231 225 199 209 247 268 266 245 239 223 210 200 187 190 181 176 160 146 132 138 129 112 113 119
211 232 170 170 167 178 197 16 32 -21 49 -40 15 47 100 144 90 146 181 202 197 213 198 205 227 266 242 230 245 265 273 266 267 245 227 211 221 214 205 199 186 168 161 154 143 117 118 135 142

GFSSGP_con_3kmhel_006.txt.gz
Helicity
50 34 20 8 48 51 53 55 70 76 62 58 75 52 79 93 74 80 43 51 51 33 25 29 16 31 40 36 33 28 25 24 45 51 50 40 39 26 20 7 12 19 26 28 32 36 30 25 39
53 34 20 59 80 63 53 41 49 83 97 117 52 27 29 79 45 64 27 57 31 28 18 26 28 61 47 34 27 23 23 21 32 43 23 14 38 14 13 17 25 30 33 38 41 45 49 51 50
38 57 65 92 63 29 67 45 63 86 101 110 104 56 67 81 40 48 57 28 16 16 36 54 72 55 57 31 30 22 20 18 14 10 0 2 7 17 18 25 32 43 38 36 45 45 48 52 53
70 53 83 89 41 37 49 75 84 99 83 103 146 133 89 73 34 67 85 45 21 4 33 102 115 80 60 41 36 25 18 7 1 -18 -41 -27 -5 -7 5 8 50 37 26 23 27 24 34 33 41
105 117 103 83 27 16 50 64 62 79 93 117 150 148 155 74 48 42 60 37 53 83 56 88 85 65 46 47 36 31 30 1 -18 -47 -54 -28 -17 -4 -24 4 36 21 12 8 16 24 28 27 28
127 157 146 92 26 50 27 51 50 43 52 99 111 123 130 47 33 43 44 62 86 74 56 79 68 50 43 45 46 43 34 10 -17 -40 -53 -33 -47 -32 -1 22 18 8 7 16 19 22 19 18 25
94 117 97 68 36 38 24 46 56 67 74 58 98 125 102 50 44 32 46 67 69 47 38 55 63 40 46 48 47 61 39 22 -1 -22 -42 -25 -30 -9 11 5 4 -4 11 15 18 15 18 37 44
131 145 101 93 37 8 57 60 74 68 70 89 88 104 97 102 56 38 45 55 60 72 75 68 68 55 41 51 66 60 33 40 33 21 9 -19 -27 -12 13 5 35 30 28 34 41 50 44 54 55
149 135 97 59 33 57 77 35 48 88 83 92 88 150 179 136 84 61 55 51 66 77 95 93 79 67 56 57 72 62 42 48 64 56 38 -6 -16 -8 5 37 37 46 60 57 62 61 53 29 39
121 123 53 73 72 57 57 70 90 97 79 89 102 105 133 138 98 88 85 71 55 65 71 79 80 62 55 59 78 58 56 39 41 40 39 20 19 29 43 52 63 62 62 72 66 63 36 22 36
137 85 58 68 59 50 47 53 61 68 89 74 97 147 170 194 146 106 90 90 83 52 66 65 64 66 52 54 72 65 63 57 55 54 53 62 57 57 56 58 54 49 54 44 42 47 55 53 51
130 70 97 76 65 63 22 38 48 61 39 125 147 144 166 171 162 134 106 83 89 57 51 47 54 84 61 52 53 56 68 60 60 55 66 70 80 91 87 90 86 76 62 60 64 57 58 56 52
73 63 64 64 76 55 49 -9 1 43 39 71 89 91 138 148 152 122 96 87 68 73 38 36 39 46 70 56 54 65 63 56 57 64 62 87 104 114 131 112 100 87 74 65 64 60 60 58 50
100 79 61 52 30 32 27 14 31 -32 7 47 74 67 95 119 136 136 90 67 73 59 44 41 43 46 58 66 53 61 68 63 64 76 80 99 121 142 153 141 125 98 79 65 59 55 49 40 34
82 68 65 40 36 22 29 1 7 15 -8 -25 28 85 91 113 123 133 117 81 61 71 57 48 40 64 72 80 64 66 82 73 73 77 93 127 134 155 157 142 117 104 75 60 48 34 28 27 31
59 60 58 45 59 44 29 -17 25 67 57 42 42 84 93 99 113 119 132 116 89 73 69 62 52 41 68 88 100 103 102 88 87 109 127 138 152 166 167 150 131 105 76 50 34 27 24 25 31
33 52 23 46 36 69 11 5 14 60 92 75 58 88 134 112 128 127 148 148 116 81 82 64 44 27 42 74 159 129 120 151 141 153 151 169 176 161 154 141 124 95 66 43 24 22 26 30 40
43 21 28 31 30 50 40 18 35 34 51 61 49 51 60 108 140 173 158 154 131 105 92 85 69 63 75 176 198 260 231 227 235 214 197 209 210 170 165 147 115 78 46 32 15 19 20 21 39
76 61 44 58 63 56 22 7 26 36 31 47 46 40 45 59 98 160 231 204 174 140 127 102 82 100 173 248 269 289 253 276 289 277 253 265 236 187 164 137 107 71 55 35 25 5 5 18 41
40 35 37 42 42 51 39 30 30 37 32 37 50 53 43 41 70 83 153 207 177 162 135 119 111 117 159 206 220 278 273 293 276 360 355 319 253 188 161 124 93 67 38 28 17 7 -3 17 39
23 42 57 48 84 67 25 39 -46 2 35 21 27 42 41 53 44 71 78 118 145 163 142 129 116 114 136 187 304 332 382 356 396 431 431 319 222 191 155 118 86 57 33 12 5 6 13 13 34
58 79 29 37 68 56 68 63 54 26 15 16 59 62 47 65 51 58 66 96 122 129 133 124 125 113 159 200 295 266 354 381 293 381 333 276 228 178 143 109 74 60 31 16 6 1 4 0 27
73 102 79 79 73 89 53 83 43 11 -25 17 43 36 100 89 62 80 52 77 105 109 117 141 120 124 161 195 187 241 280 285 359 393 345 285 205 162 135 103 82 64 39 25 9 -3 3 9 20
174 119 94 86 109 150 58 49 43 55 44 -24 -2 53 131 74 52 65 82 118 118 155 143 145 114 119 117 170 167 238 338 362 448 367 325 238 187 162 140 113 93 67 45 23 13 12 15 25 38
131 172 197 136 153 160 25 -61 6 111 133 121 -6 99 82 60 90 89 71 117 111 160 159 132 114 122 107 127 173 249 280 309 312 261 265 189 174 155 135 113 89 71 53 38 28 25 28 39 50
68 114 227 154 125 81 112 128 129 26 25 -7 8 39 59 90 97 106 97 96 86 115 142 144 116 119 127 153 220 248 269 252 264 223 189 175 170 157 134 121 102 85 64 49 44 46 52 63 73
164 196 61 134 135 167 142 137 55 62 79 56 44 81 97 98 92 116 107 70 90 96 121 128 133 132 154 182 300 256 247 195 188 212 205 201 187 164 144 128 113 90 74 67 65 59 65 76 99
128 207 217 261 243 148 168 66 104 69 11 0 3 72 77 102 129 80 75 74 83 84 120 130 133 145 195 247 248 291 191 150 231 232 220 201 188 169 156 136 118 104 94 88 68 69 91 100 120
197 296 298 263 343 324 157 118 101 115 53 52 16 49 83 75 88 128 102 69 86 83 119 126 131 144 171 222 302 254 246 225 270 232 229 210 190 169 158 145 132 116 106 95 79 100 109 125 136
132 166 209 277 404 345 256 70 76 49 42 23 65 28 38 48 28 103 96 71 100 91 132 143 133 138 186 290 310 233 221 264 263 243 223 190 192 183 173 158 145 131 124 106 101 115 135 139 139

GFSSGP_con_3kmhel_009.txt.gz
Helicity
37 15 19 11 44 37 42 59 22 51 40 62 106 76 97 114 66 87 32 82 80 68 71 45 65 44 43 36 27 23 17 16 51 56 69 89 83 67 47 32 29 32 34 32 42 58 47 45 53
61 32 15 50 45 34 34 36 42 45 108 71 53 48 65 58 74 28 4 52 53 49 60 57 64 73 66 52 35 24 23 22 29 27 45 76 79 63 41 35 30 34 35 36 44 50 49 53 58
40 38 61 70 28 -16 25 74 58 86 48 64 72 45 70 77 53 69 44 51 42 30 37 81 83 95 89 55 40 18 22 12 6 8 14 40 58 49 27 34 36 33 32 40 40 39 37 43 43
63 50 78 84 21 8 9 72 74 67 45 51 90 90 46 100 77 76 56 40 28 23 28 122 108 99 83 65 55 22 11 4 -12 -14 -16 -2 8 6 4 26 38 30 26 26 26 20 22 36 32
64 90 81 64 23 -4 37 74 87 71 77 61 84 75 69 59 60 31 56 62 81 61 132 76 112 91 68 57 46 38 18 2 -28 -42 -39 -23 -9 -0 3 24 28 16 12 11 13 18 26 24 14
119 122 91 74 28 20 32 64 60 50 42 45 57 69 48 68 54 71 46 55 79 75 101 114 92 93 72 62 47 42 37 8 -17 -39 -39 -30 -29 -26 5 34 26 12 7 12 11 16 12 22 41
104 111 84 56 48 28 38 58 61 54 47 43 40 107 42 46 92 56 40 47 45 52 109 104 85 63 79 81 55 50 47 26 8 -5 -22 -17 -14 2 22 27 21 7 13 17 26 42 47 49 48
97 112 60 58 41 1 43 68 49 68 56 40 112 80 57 166 51 45 53 61 69 76 74 93 60 65 88 105 74 71 54 42 38 32 27 -9 -11 5 35 49 47 31 34 46 49 46 43 39 38
118 126 108 40 31 35 48 103 42 48 78 78 66 53 107 136 80 67 57 51 52 64 74 81 77 89 99 109 98 76 65 50 65 54 27 -10 -24 -1 14 69 55 57 51 54 48 43 29 11 22
109 123 76 34 57 49 60 57 53 65 38 57 81 72 119 121 121 79 72 63 56 46 51 64 81 92 119 107 104 67 61 45 44 44 42 11 25 42 80 63 57 60 55 45 37 20 -1 18 42
76 84 46 65 107 159 104 66 63 93 66 65 58 54 69 132 146 138 109 94 71 62 61 72 83 103 135 113 99 88 62 84 42 57 52 50 57 58 40 56 39 50 22 26 5 22 52 39 44
78 96 58 99 129 49 58 66 70 38 42 73 46 61 75 107 126 120 109 110 117 83 69 73 66 83 72 91 109 87 65 93 48 61 57 71 75 82 85 110 116 96 60 64 65 55 48 34 42
105 89 78 78 106 61 52 44 47 77 53 69 131 145 169 114 117 127 116 96 90 101 81 70 52 71 69 83 106 130 39 86 63 69 63 64 93 94 154 133 115 114 103 88 69 59 45 37 38
154 107 94 69 58 39 32 33 46 33 21 15 26 68 75 94 109 98 104 90 89 77 76 73 56 57 58 53 94 115 23 81 99 78 77 81 87 153 140 145 146 137 124 97 73 58 40 32 32
115 60 60 37 30 32 42 21 27 11 17 -21 -14 -2 33 70 78 84 75 88 69 78 71 82 71 70 65 57 58 89 30 91 129 77 83 101 182 140 143 156 154 139 116 94 70 49 26 25 33
79 52 75 45 71 35 43 5 49 63 46 61 13 23 -15 40 84 91 87 80 73 86 87 82 85 75 89 82 78 77 74 132 106 122 124 157 151 152 167 171 166 129 112 86 64 44 24 28 40
50 99 40 81 31 59 12 3 47 67 59 52 74 69 57 39 48 82 84 80 53 93 111 121 112 81 102 88 84 85 182 139 94 104 162 181 168 162 182 167 154 126 114 83 53 39 36 31 32
90 43 79 70 55 8 43 23 33 50 36 39 55 64 66 60 53 123 138 99 61 91 106 111 130 104 98 95 84 162 208 233 287 242 225 192 181 154 179 171 161 135 98 66 43 38 24 20 28
97 112 73 54 51 27 36 29 30 34 36 36 49 59 63 56 61 85 88 196 147 97 149 138 156 108 134 199 242 240 299 295 278 266 272 243 247 243 194 174 162 130 92 58 40 16 15 21 35
35 32 37 29 27 54 43 45 40 27 33 37 39 45 46 47 58 65 85 85 190 218 187 190 142 136 149 266 258 343 405 344 261 276 288 314 337 278 215 169 153 110 74 55 41 21 -5 12 20
13 27 38 44 89 62 19 41 -38 34 14 34 34 9 -1 -2 54 75 71 93 106 151 175 193 172 155 212 235 339 393 399 443 378 318 348 383 395 310 251 177 142 106 72 48 30 11 12 5 18
35 52 43 70 74 39 82 44 85 143 87 37 -11 -7 -1 32 56 61 75 85 97 125 197 220 223 227 180 228 284 331 378 393 320 382 434 402 380 334 235 192 141 101 61 43 18 12 2 -11 13
62 139 110 88 77 105 102 140 36 136 64 -15 -47 -49 58 27 58 76 53 72 90 119 186 192 196 223 214 237 192 281 270 324 393 441 470 430 423 286 215 184 136 96 66 46 26 8 5 5 14
159 116 94 108 150 131 70 81 90 97 92 113 58 132 82 63 96 109 78 74 101 120 192 223 174 204 224 189 203 230 231 362 447 479 489 442 402 283 228 167 129 92 68 47 32 19 9 16 28
114 133 109 12 56 147 167 179 164 51 69 47 22 45 101 44 75 121 135 77 102 124 173 208 206 165 203 140 175 175 232 330 354 408 406 433 336 271 192 156 121 94 79 55 36 21 14 24 33
58 107 113 166 175 148 206 307 172 61 97 97 70 38 83 136 75 128 158 106 101 98 164 164 165 174 204 139 144 176 358 323 298 355 373 314 286 204 161 147 125 105 83 62 45 39 37 51 58
122 134 43 148 118 191 256 143 69 56 21 25 16 18 78 54 93 102 96 80 91 99 107 144 138 191 188 161 195 344 301 295 317 341 308 305 235 191 176 151 128 110 90 72 63 55 55 66 85
86 150 182 205 288 208 189 88 138 99 25 47 41 63 52 107 113 100 81 107 76 69 80 99 124 158 160 243 337 359 269 330 336 319 314 312 207 185 176 151 132 113 103 89 75 81 95 85 91
99 88 180 163 253 364 275 292 46 71 154 175 127 63 60 53 46 30 2 64 63 63 67 116 140 175 179 274 291 276 315 356 354 323 312 260 204 194 179 160 142 123 106 98 97 102 100 92 108
9 97 93 216 205 307 237 335 98 79 70 40 103 66 43 36 3 -0 -15 8 57 60 82 114 188 221 249 235 276 320 394 368 338 297 282 225 216 201 180 155 139 143 123 127 112 103 107 114 135

GFSSGP_con_3kmhel_012.txt.gz
Helicity
58 68 18 21 44 47 57 27 81 72 50 98 80 168 135 65 54 67 34 67 132 101 97 67 74 67 57 58 41 21 3 13 35 48 86 104 98 67 45 39 46 48 43 42 48 59 63 63 54
46 61 37 51 57 68 59 -4 94 66 102 123 76 84 83 72 38 18 30 28 88 105 70 52 73 80 57 57 43 32 27 23 27 31 57 80 71 57 50 41 41 38 34 36 40 42 46 51 51
36 37 70 67 39 12 36 35 120 106 129 50 53 36 48 78 129 13 90 38 91 103 15 57 71 86 72 65 40 34 27 9 12 19 24 42 39 41 44 40 38 33 28 23 24 28 32 37 36
61 60 86 97 26 14 -5 27 110 132 53 36 87 102 69 88 79 66 43 42 64 61 123 94 76 91 85 62 42 36 30 8 3 8 4 -1 10 14 32 35 29 23 21 19 19 21 25 28 19
99 128 94 81 31 5 2 22 74 108 76 67 48 49 56 108 115 80 66 47 67 122 181 97 84 98 89 71 48 40 31 14 3 -7 1 -2 -8 -16 8 45 23 12 6 8 11 19 17 12 15
140 130 132 68 31 30 41 26 123 77 56 40 59 43 58 48 38 62 43 41 96 182 171 116 103 99 80 65 71 48 38 16 -3 -8 -13 -23 -34 -52 16 23 16 4 4 2 6 10 17 21 20
105 106 103 58 46 44 32 29 98 108 61 51 30 52 39 176 149 65 42 48 88 153 151 96 121 105 97 95 77 79 56 25 8 7 9 -4 -15 -7 25 31 18 17 14 14 22 14 18 18 20
135 132 71 59 75 8 46 46 103 144 94 36 63 129 68 113 70 60 54 109 96 128 128 80 133 139 117 104 91 90 81 43 29 28 52 17 7 24 44 66 53 35 31 24 22 18 16 12 10
113 154 117 72 40 35 63 85 61 140 96 105 56 77 58 131 85 104 100 101 99 93 88 83 79 109 104 120 104 106 100 74 62 42 45 32 6 14 54 65 67 57 42 33 27 12 -1 6 5
203 164 127 77 64 71 95 65 93 128 64 82 132 61 91 24 54 95 58 65 83 77 91 107 28 89 126 136 138 117 116 99 67 38 26 23 30 52 72 63 62 52 46 36 17 10 24 37 24
142 115 103 79 112 88 111 206 179 126 106 101 74 85 90 68 59 99 88 56 51 78 89 92 154 199 161 172 129 115 112 92 65 55 38 40 126 119 74 60 48 28 40 32 33 23 47 37 36
94 100 79 74 159 158 57 100 165 135 94 87 75 87 38 136 83 82 115 112 104 88 94 126 135 232 203 209 122 97 106 93 70 73 65 95 89 79 62 71 63 65 67 92 97 79 63 59 60
109 102 79 110 124 142 111 93 93 122 177 66 85 118 162 89 188 130 104 62 91 163 144 191 108 198 208 194 138 112 66 125 60 99 111 99 91 80 123 172 134 138 147 135 119 104 79 65 54
133 132 108 118 143 102 88 69 68 90 37 38 53 106 169 155 179 142 153 133 102 124 166 205 132 159 165 182 158 158 75 98 50 122 112 95 85 147 238 205 178 160 133 135 127 98 82 66 54
190 133 83 81 76 105 81 50 50 26 41 53 60 67 29 109 147 137 108 110 90 85 147 184 182 209 134 142 158 168 70 74 153 142 107 72 204 226 171 174 174 145 147 150 141 112 88 75 62
112 77 91 35 17 56 74 32 48 34 56 52 58 49 51 68 52 63 105 111 51 104 117 151 187 219 173 111 108 151 49 150 206 152 131 192 226 219 187 171 177 161 159 134 129 105 79 65 60
84 114 84 85 33 57 55 43 27 55 55 66 61 67 78 70 65 62 101 136 129 86 93 146 196 215 242 178 121 135 114 200 195 185 207 257 278 250 237 234 199 177 184 158 116 90 60 50 46
116 104 129 129 108 57 56 49 54 54 58 65 84 71 90 100 98 104 123 121 140 143 112 160 207 227 290 268 169 138 217 244 205 232 292 372 267 237 230 239 241 207 180 140 101 74 55 39 35
213 194 174 146 152 87 60 51 47 41 53 33 83 95 83 73 47 82 116 118 168 150 144 182 245 262 376 331 236 198 268 348 399 427 411 336 256 224 280 259 250 221 189 136 94 50 58 50 37
101 82 66 50 33 46 38 50 40 80 91 80 72 88 82 73 61 69 81 143 125 153 179 181 242 269 300 340 240 269 351 385 463 464 397 313 297 345 321 305 271 228 186 141 95 73 35 19 21
74 58 53 60 46 25 28 11 -3 95 -2 29 28 19 5 36 65 66 64 108 162 114 182 223 231 286 274 377 394 500 528 548 498 457 421 369 370 387 336 329 286 223 165 114 78 59 44 20 5
46 81 78 56 64 34 129 11 73 50 85 74 12 43 63 43 69 87 51 49 143 182 131 226 259 275 368 493 530 451 453 523 478 467 431 386 413 418 384 366 299 209 158 108 65 46 31 21 14
58 102 131 97 77 74 49 82 30 -5 50 118 104 164 121 60 72 96 117 95 59 136 205 162 201 261 468 524 464 421 465 505 526 463 420 419 452 442 389 368 316 228 155 99 69 52 45 26 19
153 118 56 64 69 68 -37 25 86 123 45 58 182 195 203 97 66 75 67 80 81 109 134 205 227 282 410 429 364 374 408 483 498 468 448 463 476 453 408 366 268 236 158 102 71 56 51 37 32
94 100 43 13 71 80 153 101 266 171 51 75 111 203 146 116 90 136 139 140 122 58 120 177 269 354 441 365 287 306 359 426 475 490 494 503 487 432 375 351 289 225 143 99 70 59 45 44 47
65 102 67 92 111 154 156 210 219 182 175 167 149 120 131 147 121 98 137 134 124 177 125 124 278 369 459 398 278 271 409 400 437 439 459 480 453 417 428 280 248 188 138 100 83 69 61 62 52
89 58 155 196 128 133 234 258 131 73 71 69 117 84 96 70 104 64 115 121 114 89 155 137 228 369 396 353 282 319 412 394 386 420 425 438 461 409 244 247 232 171 130 96 79 75 70 73 66
60 105 159 195 130 171 164 171 222 95 114 123 113 185 195 123 158 160 140 84 49 113 128 136 215 260 358 317 249 337 384 431 380 369 372 444 383 345 310 272 214 180 143 120 107 98 97 87 78
124 97 158 253 247 206 156 197 270 171 132 123 92 123 111 99 104 66 49 32 27 79 76 127 214 236 334 399 368 387 415 367 317 311 417 430 411 340 291 259 197 158 127 111 98 111 92 85 97
112 120 105 213 186 262 289 237 156 45 104 74 78 124 117 -3 81 64 62 11 40 49 83 132 136 330 518 429 404 374 336 299 320 418 462 407 353 316 262 216 179 163 153 139 132 116 115 124 125

GFSSGP_con_3kmhel_015.txt.gz
Helicity
53 42 39 73 96 97 87 46 111 79 58 62 60 85 96 82 70 86 25 61 135 112 64 80 67 78 66 58 56 44 35 36 39 58 69 86 74 57 53 49 39 37 29 27 31 46 54 41 41
55 49 67 89 97 112 76 56 62 45 70 86 98 115 97 104 55 19 67 121 128 136 72 69 71 75 68 64 59 41 47 43 27 47 72 83 76 48 35 30 25 19 17 21 29 33 37 35 33
55 51 90 70 66 57 72 57 71 77 97 81 68 60 65 68 26 -34 55 130 117 117 66 60 74 69 67 65 60 58 47 42 30 27 26 36 45 35 33 26 21 19 19 22 25 27 24 22 22
82 119 109 95 49 24 27 96 8 76 84 70 80 72 60 93 28 5 113 168 107 83 73 60 72 71 77 56 59 51 41 42 24 6 -6 -4 13 21 22 19 14 12 11 13 16 10 10 11 12
126 138 109 83 35 14 7 75 81 69 91 43 63 38 80 72 76 34 131 146 84 97 82 57 51 78 81 45 56 60 37 32 18 4 -12 -19 -23 -15 6 10 6 2 1 3 9 6 1 4 13
145 140 118 74 43 41 40 76 65 93 82 96 68 51 44 32 77 26 93 155 171 135 79 49 63 85 77 52 52 63 54 41 19 13 -1 -18 -39 -34 11 1 -2 -5 -4 -4 2 3 11 12 12
136 159 119 80 36 46 11 107 96 108 88 74 74 62 68 93 39 31 82 197 181 192 122 95 80 80 79 78 58 59 60 61 30 21 15 4 -34 -7 17 9 7 13 10 18 17 13 8 6 4
149 171 137 103 55 4 1 18 -12 148 160 147 80 76 134 67 42 42 40 193 203 165 132 116 107 120 116 96 76 72 76 72 65 40 26 25 23 30 30 18 17 15 23 22 19 12 7 8 7
158 194 138 104 67 53 59 41 17 76 138 154 142 106 44 67 88 94 110 177 178 145 129 137 140 152 140 121 85 86 94 90 90 81 41 25 29 66 64 46 36 28 23 23 18 13 15 6 3
221 189 126 118 45 42 69 70 65 121 146 163 100 120 77 85 99 107 131 124 182 145 135 134 136 148 154 134 129 104 98 103 104 87 62 27 27 53 71 64 51 42 32 23 19 24 37 40 33
186 162 141 78 49 58 47 108 95 209 241 143 97 85 71 90 69 67 90 104 67 150 135 132 127 117 139 151 162 136 112 115 91 76 61 69 39 52 72 65 53 44 44 40 38 41 48 60 58
171 146 91 66 51 69 96 108 140 168 216 291 184 127 125 130 75 92 31 54 89 85 137 124 147 176 164 158 175 150 128 104 97 68 72 105 101 107 86 66 70 56 47 78 80 74 77 76 71
151 129 117 115 131 80 89 95 109 123 179 165 120 78 138 140 169 123 63 62 90 104 91 117 213 218 247 229 179 143 131 100 69 91 80 119 105 102 124 76 103 104 117 116 110 95 93 93 86
148 121 170 159 116 103 114 44 101 122 89 79 103 58 48 123 187 168 154 121 131 112 156 137 236 246 307 240 186 197 174 105 86 106 113 129 109 148 181 184 196 180 160 137 122 103 105 110 94
214 189 180 93 72 78 113 48 98 86 83 97 49 49 21 3 131 186 162 122 157 119 167 165 221 258 310 245 195 209 183 127 82 107 138 123 156 204 225 234 212 184 174 169 154 140 118 118 92
159 118 94 58 76 96 124 68 48 47 116 108 106 81 41 31 -25 110 144 143 112 171 157 194 219 260 313 257 213 209 149 141 109 135 149 163 185 212 217 226 210 195 175 166 180 153 132 105 91
145 116 72 149 77 104 120 57 46 89 115 97 94 87 69 60 82 70 94 130 106 148 189 208 269 252 236 304 235 202 160 112 153 205 235 241 260 236 272 246 219 205 208 193 176 159 113 98 81
102 123 135 132 139 115 120 91 96 57 53 25 50 69 75 69 44 63 64 105 100 91 145 124 311 304 261 248 272 262 203 156 214 258 310 320 285 269 317 288 255 231 242 221 176 147 122 89 69
146 160 119 108 181 123 81 66 58 41 16 4 -4 36 45 21 17 49 67 88 74 94 96 103 216 338 420 373 272 276 244 259 273 312 377 435 346 324 344 309 276 228 240 206 151 131 123 123 76
90 79 61 77 124 108 61 23 29 53 81 85 44 44 21 40 36 6 25 61 86 105 93 84 126 367 421 428 340 305 349 365 344 387 392 383 364 382 350 301 273 234 254 229 170 120 100 91 91
74 73 60 58 69 41 26 35 45 37 46 27 6 21 41 41 53 54 62 44 54 91 119 109 105 287 424 412 514 548 533 520 437 410 429 415 417 392 347 326 303 267 256 212 161 113 93 75 70
72 92 94 85 58 71 40 49 62 47 44 50 32 43 48 36 50 81 109 110 87 44 126 145 122 203 340 463 503 506 463 486 456 489 469 466 426 435 390 364 315 279 265 233 151 104 79 66 63
47 65 60 64 49 43 66 76 -5 -37 -6 -26 86 116 71 30 68 72 78 130 122 134 106 171 130 165 284 377 457 489 465 543 548 591 548 503 476 446 395 365 341 299 257 209 179 122 101 72 59
79 67 71 62 60 88 35 107 10 -57 -18 8 38 132 121 131 136 135 128 118 129 128 150 114 135 172 268 375 447 462 521 574 561 557 546 575 534 495 417 371 356 274 318 195 187 127 100 78 68
105 89 63 83 94 40 93 66 147 78 -17 27 34 80 80 109 114 157 183 221 231 214 159 126 154 175 240 390 472 542 548 575 488 510 550 623 587 513 443 403 386 276 301 241 196 120 92 75 70
102 77 82 25 15 20 85 63 26 -11 -1 62 52 100 91 80 109 137 106 181 199 205 174 138 94 189 249 337 406 472 519 483 425 451 515 538 520 476 431 405 372 370 292 252 189 114 88 81 75
69 50 110 118 86 104 117 158 129 23 103 103 97 101 119 84 74 118 140 147 155 176 107 85 67 149 227 274 376 436 530 397 390 399 411 469 528 453 438 420 414 402 310 178 157 99 84 81 72
59 81 112 135 42 46 75 131 116 55 122 158 80 79 106 171 232 196 138 130 113 130 84 -19 -3 108 253 278 322 456 441 372 382 394 405 438 493 405 432 419 406 289 193 174 127 111 91 86 86
105 103 134 134 131 104 109 128 218 207 127 69 112 87 97 95 53 68 108 98 30 36 26 -12 1 111 268 326 384 441 403 364 332 290 355 433 458 445 400 480 337 254 211 163 134 102 84 88 104
121 106 171 106 99 188 232 288 106 24 143 163 134 134 101 139 209 99 71 75 50 31 21 14 22 234 251 329 400 405 347 363 302 295 347 412 418 392 439 318 288 252 191 140 115 106 107 99 105

GFSSGP_con_3kmhel_018.txt.gz
Helicity
50 49 33 65 97 95 97 96 93 150 117 15 34 67 48 74 56 76 14 28 105 91 47 52 47 47 56 54 55 66 63 60 69 55 55 76 60 50 50 43 38 28 18 14 25 37 31 23 24
61 69 79 89 121 123 100 98 179 113 89 24 41 49 77 103 56 80 57 39 104 112 84 54 54 47 48 50 62 72 62 67 62 65 80 61 44 38 31 24 18 15 14 12 8 13 19 20 24
89 95 107 119 119 80 106 157 187 107 54 51 67 47 83 91 45 7 34 106 141 123 97 56 52 49 45 53 55 80 61 53 66 77 82 60 33 26 19 13 9 7 6 7 7 8 15 20 30
144 155 160 138 51 33 76 146 224 210 39 66 44 69 100 82 75 36 107 123 163 125 99 66 54 54 46 52 53 66 63 51 47 37 31 32 21 13 6 4 -5 -13 -17 -17 -12 -1 7 11 15
182 185 173 117 26 22 58 63 114 205 91 56 47 73 84 108 60 117 105 107 143 126 106 68 58 49 53 56 41 51 58 48 34 13 1 5 2 2 -3 -7 -15 -23 -28 -26 -8 -8 -2 5 10
234 194 175 105 34 15 -2 68 84 108 73 73 48 63 80 35 102 99 85 88 116 133 90 50 48 52 57 52 43 44 58 53 42 10 -2 -9 -22 -6 -11 -12 -17 -23 -22 -15 -7 0 13 11 12
209 200 144 84 46 46 7 0 111 149 89 88 76 86 73 39 20 82 95 112 89 106 86 41 32 62 57 57 55 53 59 63 46 43 12 -19 -24 -8 2 -8 -14 -13 -11 5 12 15 16 14 21
148 180 114 80 90 54 37 70 121 125 100 114 131 110 97 39 3 141 157 155 127 107 90 80 71 87 75 68 68 75 61 64 58 48 39 -4 -33 21 36 10 -8 -5 -3 4 11 14 21 22 31
145 175 125 106 110 105 77 82 86 83 108 137 182 139 100 85 92 189 188 192 171 154 115 108 124 122 112 93 73 74 83 82 83 74 53 50 25 46 59 36 24 16 11 6 13 17 16 15 26
180 167 117 92 84 68 73 64 59 140 194 151 177 162 180 136 93 125 148 155 140 157 152 107 128 144 155 125 106 92 88 97 96 81 70 65 64 61 54 48 56 45 37 24 28 35 44 46 41
173 138 131 102 81 58 100 147 67 155 186 196 177 102 143 177 176 113 146 140 146 128 184 159 122 169 171 165 142 120 112 116 108 95 90 81 73 86 83 72 57 57 65 59 65 69 58 58 50
164 134 123 81 69 67 63 90 91 133 163 182 216 252 176 152 146 127 100 136 140 170 162 181 167 175 160 168 164 157 148 116 117 99 107 119 95 95 98 96 83 76 82 83 89 87 86 86 78
152 159 139 88 86 103 102 74 79 65 123 159 172 181 219 254 224 136 108 123 160 149 152 195 172 157 187 199 151 150 159 133 101 111 110 117 118 113 119 99 106 97 89 103 118 110 102 101 99
186 100 120 104 94 106 92 63 92 88 11 96 100 112 115 169 243 243 220 125 114 128 169 206 205 188 232 194 185 182 154 116 129 124 128 116 133 148 143 143 132 129 114 117 126 123 119 116 102
169 170 186 127 82 86 109 31 62 63 26 33 73 40 27 28 136 207 194 189 162 127 132 238 211 222 252 241 249 222 178 141 150 123 117 123 151 164 166 180 185 168 148 160 154 147 133 131 113
166 155 136 88 78 64 114 34 59 50 74 77 46 49 40 2 2 101 168 162 148 152 139 231 264 272 250 265 287 278 228 194 171 138 114 125 173 199 226 245 212 184 183 168 160 150 162 145 128
216 144 114 121 69 95 130 80 45 91 121 113 98 91 105 95 60 32 95 147 122 120 141 158 292 258 271 295 310 299 230 247 159 141 114 180 195 221 254 242 223 208 210 191 167 180 158 145 123
106 121 126 123 159 142 130 106 83 97 113 123 98 53 44 28 27 62 128 139 148 137 99 130 189 285 290 299 312 319 242 257 192 162 174 242 245 275 289 269 265 245 236 202 196 191 183 135 115
169 158 159 99 103 81 97 85 68 21 62 32 -5 1 0 -1 -10 53 77 97 98 131 110 120 137 259 348 354 336 287 253 306 246 199 247 304 320 326 344 319 293 260 225 180 196 199 165 170 119
149 133 118 86 72 60 63 23 -4 33 78 98 34 -10 -11 7 -1 30 50 72 88 100 117 112 153 176 316 376 353 369 339 368 308 323 316 310 333 371 368 325 309 280 252 181 171 170 159 149 136
86 91 94 103 32 1 8 19 51 60 53 55 59 29 43 40 13 -18 -5 21 39 67 82 87 104 111 193 274 444 505 517 499 456 375 336 324 373 371 391 360 351 300 244 171 153 152 155 136 136
98 53 41 43 43 62 65 42 28 39 49 40 59 65 56 72 122 118 80 43 35 28 46 63 91 128 158 248 389 444 400 436 396 407 451 390 370 389 400 417 379 317 267 218 190 173 149 136 110
72 55 44 37 31 20 22 69 8 13 58 30 17 53 82 58 54 40 81 119 130 116 100 80 75 90 170 275 304 397 419 411 527 544 507 446 431 427 430 440 396 348 310 257 228 211 163 138 107
57 73 64 36 23 55 8 86 23 3 18 64 88 60 73 52 60 50 79 82 62 83 95 122 130 145 146 235 294 315 406 521 543 538 536 498 486 477 459 457 388 356 325 285 244 242 167 162 135
96 73 63 69 71 50 47 56 62 28 -29 22 35 51 48 32 68 55 78 95 114 110 114 119 104 175 129 155 226 292 409 471 503 495 553 595 559 500 524 510 462 391 360 350 316 302 204 160 124
62 53 41 33 37 39 60 41 21 -2 8 69 85 57 67 43 68 67 78 101 141 193 205 185 155 138 74 105 170 256 356 477 510 518 539 575 545 559 567 551 484 449 374 336 339 319 226 142 122
37 75 65 77 65 81 75 90 0 0 71 159 138 126 98 83 75 83 104 119 150 157 155 151 157 127 39 76 192 308 402 436 487 503 524 557 523 545 550 552 496 414 403 397 345 353 244 135 110
54 73 87 102 63 39 49 52 32 14 65 89 47 66 110 149 158 109 71 107 104 108 129 148 102 79 52 66 176 307 363 379 426 426 436 431 465 436 500 516 489 405 403 443 394 311 210 143 95
91 68 89 79 78 47 31 31 59 12 22 22 67 100 104 100 123 121 84 92 98 73 66 63 57 24 36 87 196 334 372 403 386 356 384 426 404 440 459 536 475 420 435 332 348 246 179 132 104
82 68 109 55 9 13 46 142 -12 19 28 51 28 -15 31 53 74 129 135 80 125 142 96 47 15 48 24 138 316 377 415 382 391 382 350 314 367 392 474 539 443 435 437 467 282 256 160 126 95

GFSSGP_con_3kmhel_021.txt.gz
Helicity
62 64 36 59 85 85 83 95 118 163 144 72 59 49 51 59 94 110 50 58 90 74 45 45 35 25 30 40 37 54 68 78 96 113 111 86 59 45 40 32 24 21 13 10 19 24 24 22 15
76 73 80 70 95 95 83 86 126 140 96 104 72 58 51 73 67 92 50 11 66 74 72 55 42 32 33 28 25 38 56 64 65 60 66 55 43 30 20 19 19 16 8 2 3 10 12 14 20
108 102 90 94 85 68 84 113 153 198 142 99 68 65 54 55 73 39 10 72 81 90 90 70 51 31 36 32 31 30 37 31 49 82 67 46 29 25 22 17 13 11 8 5 2 4 10 16 20
140 159 151 126 77 63 74 146 201 263 175 87 52 83 53 67 75 26 72 115 125 109 114 80 57 34 36 32 39 34 45 66 78 84 63 44 25 17 13 10 2 -5 -9 -9 -9 -5 0 5 12
198 191 173 122 64 44 66 70 124 248 245 185 86 81 82 90 92 101 119 119 140 141 126 87 62 40 31 41 44 35 35 49 67 56 35 24 21 11 5 -3 -16 -25 -34 -34 -19 -14 -9 2 6
243 221 201 154 47 35 53 38 83 176 204 204 123 98 88 68 98 76 111 101 104 136 124 85 61 49 41 38 43 38 29 40 44 33 18 11 15 11 3 -8 -17 -27 -32 -15 -9 -9 7 8 14
230 251 179 136 50 79 55 43 128 135 130 110 73 103 83 56 57 92 109 101 90 106 117 94 60 46 50 51 56 56 37 32 34 27 15 20 16 16 9 1 -12 -19 -32 -14 -1 14 13 26 33
200 221 173 137 72 65 30 54 82 93 106 78 75 73 79 45 62 125 129 116 108 84 72 69 61 50 61 73 67 68 56 48 38 43 38 14 -4 15 23 15 -4 -8 -14 3 4 11 19 33 42
211 228 196 158 76 61 63 111 127 102 133 143 121 91 87 205 176 181 180 161 128 95 92 86 77 70 83 84 67 81 82 68 48 60 52 29 0 8 45 18 17 20 16 12 19 21 30 41 56
244 224 180 119 71 49 97 84 102 140 183 173 174 123 160 219 165 149 143 134 127 98 97 113 112 99 90 91 102 98 91 85 73 65 60 46 41 79 77 48 39 35 28 37 48 66 69 65 56
219 172 180 90 66 36 57 93 51 118 166 156 166 142 164 203 174 165 111 141 106 112 114 112 141 125 116 120 129 128 111 102 90 87 84 72 85 102 100 85 68 56 63 61 77 81 72 76 68
184 147 114 33 49 29 26 61 67 74 106 177 196 216 174 164 145 141 135 135 147 134 121 122 149 165 152 150 157 149 132 116 109 101 100 109 109 118 119 108 91 84 82 91 86 84 85 85 86
179 195 121 64 65 42 39 48 54 42 72 168 154 197 210 190 160 153 148 180 198 165 145 119 160 182 193 181 178 162 143 155 116 118 122 129 126 126 125 115 113 106 110 106 115 103 93 91 91
148 96 81 89 74 62 37 40 80 90 34 98 114 144 175 183 171 188 173 183 211 185 144 175 178 187 208 192 195 187 156 113 129 133 145 138 138 138 135 137 125 119 120 125 120 106 102 104 101
151 130 128 95 80 87 53 21 71 75 43 27 46 59 111 125 117 114 131 151 199 193 185 168 174 198 216 213 212 189 190 127 146 148 157 163 148 139 156 157 143 125 141 148 146 141 125 123 119
160 174 136 128 90 73 81 7 82 41 72 80 43 28 15 60 78 76 101 143 162 214 227 215 225 209 214 232 252 215 202 179 170 135 158 176 165 168 190 190 160 162 164 145 143 135 138 132 128
217 161 139 133 76 107 121 50 22 55 99 89 62 60 28 31 82 83 83 116 144 161 171 188 190 231 238 265 258 236 241 229 197 154 163 195 176 196 192 181 179 200 179 153 142 141 128 126 131
167 123 123 122 150 118 141 78 54 70 76 79 93 70 53 32 36 97 112 53 95 135 129 146 157 177 263 309 276 235 259 258 218 188 212 210 191 214 213 221 237 225 212 186 175 159 169 140 135
139 153 138 124 119 78 64 68 52 31 40 35 38 34 28 11 -24 -6 66 101 119 119 180 166 188 143 241 323 324 272 251 284 210 207 270 232 222 244 227 256 263 235 217 204 195 198 173 169 141
179 158 123 106 95 101 77 34 20 20 44 62 66 43 30 59 34 36 53 70 96 150 189 169 193 166 220 294 331 405 308 276 259 255 290 288 257 284 309 303 260 241 252 242 210 178 180 169 133
103 90 92 93 113 56 59 18 64 64 71 79 79 65 29 11 -1 12 3 23 54 79 96 124 150 166 175 196 320 443 505 489 436 342 317 295 278 325 343 307 298 284 280 252 214 179 166 175 152
89 51 66 97 94 80 102 -3 40 68 66 21 32 47 75 96 72 51 71 99 82 81 95 91 105 126 162 184 302 377 447 441 389 360 351 363 317 349 358 347 323 323 302 257 247 182 172 189 178
67 63 57 54 59 63 81 77 18 67 87 51 90 105 81 64 85 108 108 100 105 113 118 107 90 69 78 151 231 272 303 332 455 506 457 391 403 329 365 381 372 374 339 275 271 247 188 181 199
69 90 74 49 44 100 48 87 32 20 21 72 168 190 107 111 102 75 60 52 80 80 79 79 94 127 118 127 176 220 230 339 437 521 503 465 430 403 404 394 399 425 406 329 288 280 231 232 247
108 104 110 125 133 73 36 51 4 -18 79 78 65 92 107 92 99 101 82 68 65 61 67 92 100 89 62 95 174 190 213 278 346 417 468 523 485 435 405 455 446 446 464 409 332 330 295 301 283
106 72 62 90 78 78 45 20 -9 11 82 63 54 53 104 178 172 148 113 93 68 84 99 121 112 87 69 25 60 128 215 280 313 355 421 417 444 454 470 485 526 492 475 463 415 392 316 360 325
56 68 62 39 10 31 43 26 1 61 100 160 118 102 107 103 102 103 160 137 112 107 85 80 92 106 86 35 45 88 165 234 268 286 356 381 439 512 527 550 598 520 495 524 477 426 331 371 323
50 46 66 93 37 32 31 27 16 32 58 54 61 66 35 4 9 31 43 98 142 143 95 111 111 99 81 71 59 93 138 208 261 325 347 387 467 437 538 592 571 491 473 490 512 448 305 393 354
86 71 82 71 60 30 30 1 12 9 22 37 14 -22 -18 5 21 24 77 45 65 105 139 109 123 115 81 65 32 70 162 202 286 321 357 388 447 476 426 441 443 420 497 513 558 452 320 337 291
48 39 75 68 45 60 41 51 -34 -31 34 17 -67 21 62 69 62 85 82 81 92 138 138 111 102 96 80 55 52 72 135 226 258 288 354 369 381 407 383 386 408 500 555 565 601 483 509 232 164

GFSSGP_con_3kmhel_027.txt.gz
Helicity
72 70 53 66 81 96 88 94 72 108 122 90 86 89 113 109 115 113 22 21 61 67 46 39 34 17 13 -6 -2 10 20 57 67 79 78 57 46 44 41 26 14 10 20 41 44 57 24 9 9
89 79 93 70 81 88 93 81 103 104 143 129 92 90 110 127 70 86 53 27 55 83 58 47 39 27 13 -5 -17 2 13 39 45 69 61 41 28 27 21 14 15 24 36 30 34 11 9 10 11
112 120 91 74 63 67 85 75 75 125 147 113 129 73 100 104 70 32 18 33 65 70 58 50 39 22 13 10 -6 4 8 43 54 33 17 16 11 15 13 10 2 1 1 7 4 1 7 7 5
149 158 124 93 61 59 61 89 71 145 133 127 129 147 80 57 58 13 23 49 48 63 64 44 52 42 16 18 14 17 14 20 33 32 24 2 1 9 8 5 -0 -11 -12 -9 -9 -6 1 1 -0
239 179 121 84 57 49 59 34 55 126 140 175 161 164 126 62 40 47 54 58 64 61 62 67 68 36 23 22 28 25 14 4 46 42 35 18 5 5 3 -2 -7 -9 -9 -6 -4 -0 5 1 -0
272 206 126 85 50 35 44 54 52 79 133 165 149 142 123 37 42 41 40 62 60 61 58 72 64 37 29 20 28 24 4 22 42 40 33 24 20 9 -3 -8 -13 -19 -6 -5 -8 11 10 6 7
227 238 133 86 53 50 38 29 44 77 124 156 161 175 140 77 35 39 50 56 57 64 62 57 46 41 22 47 38 34 39 57 55 36 33 35 29 24 11 -0 -8 -13 -4 -6 16 12 15 15 20
237 213 115 93 60 40 25 49 64 45 108 106 108 163 136 88 33 45 57 56 49 57 56 48 41 43 35 34 48 44 45 55 50 44 42 43 42 34 28 12 -2 -6 12 29 16 24 27 27 31
256 220 150 103 100 54 47 89 91 93 96 106 107 146 128 71 67 69 77 69 55 51 37 47 51 47 46 39 34 48 51 50 61 53 35 44 35 35 42 34 26 29 40 36 31 34 44 48 50
237 191 128 137 102 72 88 80 115 132 157 122 116 143 105 83 90 87 74 56 52 44 31 45 50 47 51 46 39 44 53 53 56 69 74 63 49 42 47 51 52 63 67 59 65 56 53 40 29
225 162 175 147 108 101 80 105 110 141 136 107 118 140 128 132 126 97 65 45 35 27 44 34 42 45 52 49 59 60 66 72 71 73 80 81 70 56 62 69 70 75 91 87 76 63 55 49 40
207 182 161 145 116 122 98 93 114 111 101 91 104 160 149 133 127 112 91 72 54 46 58 49 50 57 68 81 75 70 74 68 76 79 80 96 93 84 80 90 97 96 93 95 87 81 75 68 61
196 135 162 143 150 103 86 92 83 89 83 90 95 110 146 149 130 113 102 91 78 53 48 65 77 80 90 83 93 85 78 70 66 82 81 91 96 97 103 120 121 116 111 103 110 101 91 81 71
93 134 119 98 81 78 20 41 71 76 67 64 73 90 122 139 139 132 119 105 91 78 71 85 102 109 115 115 119 112 105 86 79 78 83 86 97 99 107 125 128 127 120 117 114 112 110 101 80
101 118 104 63 69 56 -5 9 52 60 70 61 79 79 117 124 143 117 120 117 109 80 80 110 123 128 123 141 148 144 138 125 103 92 80 96 97 101 111 124 133 133 138 136 148 147 130 122 105
174 159 124 89 68 67 49 8 10 86 67 64 73 64 77 79 107 115 121 123 137 133 123 98 104 126 140 138 160 182 158 155 120 124 111 101 102 110 124 143 139 144 160 160 158 159 153 130 106
179 110 134 155 66 94 94 21 26 96 77 74 83 88 63 63 85 101 114 114 123 126 128 126 112 117 131 135 162 195 175 170 174 165 145 119 120 122 140 152 145 164 177 171 174 179 151 125 117
191 188 142 122 96 103 84 57 68 73 50 46 51 52 56 68 63 99 114 105 125 137 144 140 169 149 155 178 174 197 178 155 176 186 173 157 154 153 157 147 151 194 195 189 183 172 171 140 131
124 138 119 116 109 81 51 17 28 39 34 44 54 52 59 68 73 74 106 130 136 135 139 136 161 174 210 233 255 236 226 193 186 181 154 171 181 183 181 176 161 212 214 187 177 216 184 186 165
170 161 143 140 107 59 56 27 37 40 57 58 55 49 45 52 71 73 92 125 139 144 152 159 154 147 194 259 264 276 236 214 202 202 181 170 187 225 230 218 200 215 235 201 210 240 237 209 151
165 141 135 113 102 44 8 -4 34 55 76 118 139 107 95 155 192 199 193 182 181 153 137 121 124 137 144 166 245 321 319 286 256 269 212 213 236 252 254 284 274 239 255 231 218 237 255 260 169
140 98 101 104 104 89 89 48 83 102 123 114 225 201 201 246 204 191 215 236 251 256 178 115 115 166 161 152 172 208 248 249 267 260 234 241 254 284 277 294 315 254 269 224 223 251 259 318 255
133 94 138 135 112 95 105 39 96 138 146 189 204 208 229 246 232 206 181 168 172 178 171 153 106 112 154 149 169 196 172 172 196 230 216 234 257 266 291 316 361 332 300 268 220 261 276 291 319
43 148 154 124 115 102 104 81 120 121 140 170 140 157 223 237 192 133 104 111 159 165 160 146 159 145 121 134 128 139 171 170 203 207 200 232 281 308 308 330 368 350 318 311 303 237 252 304 296
82 105 162 165 158 110 103 102 97 71 62 91 123 152 163 104 94 98 102 101 106 141 166 152 136 143 154 140 117 101 98 114 147 167 197 205 231 293 297 340 350 385 352 347 356 325 307 330 306
101 68 82 133 129 117 79 104 98 59 73 56 59 103 45 49 33 35 33 52 63 86 121 128 134 137 151 154 159 139 114 128 109 105 153 200 220 216 179 291 329 342 340 366 383 371 334 342 317
81 84 76 67 77 129 104 91 70 34 75 65 83 88 50 -15 -58 -65 -12 24 45 61 85 106 144 131 155 179 175 159 146 128 127 112 111 129 156 202 194 192 253 295 353 366 385 395 377 388 384
71 74 82 87 98 136 108 106 75 62 94 73 74 27 -33 -66 -21 3 13 34 55 60 72 101 129 186 193 198 204 227 203 141 107 101 92 80 94 118 151 154 182 240 271 326 360 378 409 426 451
84 76 92 68 58 94 137 68 47 41 19 -42 -2 -2 -11 -37 -28 -9 7 31 46 76 100 130 146 158 196 275 261 216 192 177 118 87 64 65 87 101 113 123 153 188 229 270 346 424 396 451 495
57 50 58 42 42 52 59 61 42 31 -105 -27 4 -12 -20 -45 -14 8 23 20 27 34 85 100 141 151 175 179 208 212 163 120 111 97 81 62 77 98 105 114 139 154 193 241 307 363 439 517 571

GFSSGP_con_3kmhel_030.txt.gz
Helicity
53 52 46 36 50 75 80 70 72 60 78 80 93 117 147 184 122 84 40 63 78 82 65 35 26 1 2 -6 -16 0 22 55 53 67 59 58 31 27 22 5 9 23 27 54 56 38 22 11 13
63 56 63 61 78 75 76 68 71 73 118 111 81 69 96 127 102 102 42 51 51 76 53 30 44 18 7 -8 -27 1 26 26 34 38 31 25 20 17 10 8 19 32 42 45 44 28 14 18 21
75 80 67 69 81 83 97 77 85 91 111 116 112 76 111 111 79 68 43 32 71 61 43 58 44 29 13 -12 -19 3 22 29 54 38 18 9 5 3 4 17 16 23 20 20 15 5 14 14 14
110 108 107 67 49 60 63 94 86 114 102 106 125 126 71 78 82 48 29 24 42 53 48 72 47 33 10 -11 -8 4 30 40 46 35 24 8 2 -7 -8 -16 -15 -15 -10 -6 -2 7 8 5 2
143 137 76 57 46 48 70 64 93 120 137 124 137 138 124 78 58 29 14 19 32 48 62 50 55 46 25 3 9 -1 34 40 35 26 21 11 5 -4 -7 -15 -20 -21 -16 -7 -1 4 2 1 1
136 146 92 59 38 30 51 68 34 77 116 133 110 126 128 58 45 33 13 23 28 50 50 64 64 52 27 13 10 15 21 43 49 32 36 33 27 15 3 -8 -18 -19 -12 -13 -5 2 0 -2 0
133 115 63 47 43 31 43 36 63 78 101 117 131 118 134 87 62 31 9 24 45 51 51 48 45 47 35 14 8 0 2 42 72 45 39 42 42 32 19 1 -10 -4 -6 -12 16 8 7 10 11
181 124 58 49 41 46 36 52 51 55 75 106 126 134 127 129 53 41 20 35 26 36 43 43 46 42 35 31 25 32 30 66 73 67 56 57 52 42 35 18 8 1 5 40 29 30 28 29 29
261 131 79 42 33 39 26 54 45 74 71 107 130 162 153 83 60 61 61 40 28 26 30 42 48 48 38 36 40 37 44 47 53 63 73 73 40 40 51 48 43 43 60 50 48 48 47 47 46
181 113 51 72 43 51 15 41 42 67 69 91 100 121 101 87 81 72 67 64 42 20 29 39 41 49 51 50 40 22 33 34 33 39 59 41 52 46 43 62 60 71 73 67 69 61 50 10 28
175 94 115 80 67 67 18 57 78 76 70 90 103 147 128 84 95 83 68 57 53 34 37 37 33 37 48 51 46 35 35 43 47 39 50 37 56 73 65 63 63 62 53 61 59 58 43 47 43
178 149 162 78 90 90 51 87 87 78 118 93 132 164 133 102 87 92 85 88 77 52 43 40 40 40 33 46 43 47 52 58 64 54 44 58 64 65 73 71 68 68 65 65 63 66 69 67 57
172 137 127 96 84 95 102 92 96 80 88 102 120 127 127 130 125 108 104 104 86 75 49 41 45 53 49 44 60 56 57 59 56 58 50 57 65 65 63 68 85 85 78 81 81 78 81 76 74
119 163 71 84 83 78 75 80 93 63 90 71 70 81 91 111 126 129 115 93 89 82 65 54 50 60 68 57 59 61 70 62 59 60 60 55 67 74 66 87 96 100 87 93 95 91 93 96 83
126 102 108 79 79 72 44 30 37 60 75 77 69 65 89 98 112 109 110 101 111 108 98 69 65 64 65 80 70 79 88 91 75 75 65 58 54 65 75 83 105 124 98 98 114 123 116 117 102
85 113 121 54 48 78 64 68 26 58 82 86 72 79 71 71 91 97 104 116 118 110 107 99 83 76 87 111 117 128 99 91 89 87 79 65 67 64 83 93 116 103 119 134 137 139 137 128 113
104 69 83 62 77 69 21 42 54 93 82 106 85 91 65 67 76 67 83 83 95 108 111 97 95 87 88 87 141 165 114 93 82 90 98 91 83 77 90 99 98 100 140 157 156 148 145 143 130
92 99 101 86 85 82 51 44 55 66 83 76 69 75 70 53 59 93 110 120 107 110 117 137 135 118 104 109 133 175 168 134 110 115 111 103 117 113 112 121 115 116 156 180 174 159 167 157 145
71 56 68 93 94 94 39 29 29 43 38 33 49 69 80 78 95 117 126 140 142 159 144 150 162 147 151 178 186 196 206 202 191 162 125 126 109 112 131 173 143 148 173 176 160 175 192 206 167
68 80 91 103 88 95 68 58 39 36 38 53 65 67 64 78 89 96 126 142 156 151 166 168 164 166 180 184 199 222 222 219 207 182 161 137 118 124 161 171 169 167 173 181 187 234 229 208 185
123 106 125 129 86 58 49 30 33 70 97 111 106 94 85 126 164 178 170 192 209 214 192 160 146 137 150 161 185 209 220 232 238 241 200 171 139 143 177 183 214 220 218 237 247 244 227 236 187
123 134 123 114 110 104 113 116 74 87 108 149 149 161 196 227 236 237 231 218 217 228 209 217 192 152 126 135 177 164 179 177 190 191 189 188 171 166 186 195 194 227 282 267 277 279 237 262 271
148 114 115 108 114 120 84 113 88 97 122 163 192 230 253 266 256 231 216 193 179 163 149 145 152 141 114 117 200 219 172 133 107 113 109 107 135 192 197 234 219 250 281 238 260 290 242 264 266
61 128 161 145 138 123 123 137 104 119 150 172 181 215 222 213 185 163 151 148 153 147 148 148 144 138 129 97 101 151 159 148 151 138 129 118 126 143 154 183 220 245 263 281 307 304 262 275 260
168 145 195 173 160 169 144 130 165 139 147 153 147 204 188 132 111 99 101 93 93 118 130 132 145 162 160 154 137 110 110 127 167 201 212 194 189 191 159 150 178 235 225 258 301 355 344 313 280
110 155 247 190 141 138 143 134 151 124 95 90 113 158 112 80 59 54 43 49 63 87 118 149 175 182 188 175 180 176 159 152 142 133 152 163 158 139 127 132 154 186 185 179 211 273 323 371 369
108 73 100 140 135 180 143 129 109 104 121 69 71 80 37 12 11 1 12 39 54 70 97 120 155 186 201 200 220 227 231 225 187 156 140 136 124 144 131 111 110 138 174 187 209 250 237 270 306
85 73 80 85 112 163 113 119 112 68 97 61 70 72 46 24 19 5 16 41 50 59 73 114 145 163 186 213 226 238 235 220 207 175 163 134 105 84 85 86 106 109 146 181 204 215 231 279 355
84 84 97 96 93 130 140 109 97 62 44 36 49 21 -3 12 -10 -9 23 53 58 78 73 92 111 122 138 155 183 207 222 217 199 194 168 155 126 101 81 73 69 78 104 140 201 209 212 274 369
59 62 64 91 60 65 124 100 69 62 12 -8 18 16 17 9 -15 23 31 38 40 53 47 46 69 78 96 107 114 141 171 195 214 190 146 132 119 97 75 67 67 80 90 92 117 216 254 261 306

GFSSGP_con_3kmhel_033.txt.gz
Helicity
68 57 49 34 73 61 91 83 88 54 58 84 127 93 139 117 76 75 35 89 70 81 89 47 37 16 13 -8 -35 -4 2 38 53 58 74 56 34 23 12 4 7 14 22 29 49 28 16 13 13
59 66 55 67 103 92 72 39 45 57 123 76 78 46 114 96 77 43 7 52 61 105 63 55 56 28 16 1 -18 -3 20 35 47 43 37 28 23 15 11 14 32 43 55 59 40 24 21 18 18
53 65 99 77 79 125 98 43 48 79 59 87 74 81 95 105 104 98 74 45 72 96 52 77 60 41 15 -2 -17 -8 15 24 34 30 27 16 14 11 20 31 42 43 35 29 25 19 17 19 17
66 81 95 119 91 85 67 61 65 55 63 83 131 73 69 83 99 64 31 45 43 77 78 86 73 66 42 10 -25 -1 8 23 39 22 13 13 9 9 15 7 15 15 13 15 12 13 15 10 8
103 114 92 50 83 84 53 59 61 99 106 96 104 65 74 86 45 27 18 19 55 75 100 57 71 56 34 19 4 0 24 41 33 17 14 13 10 6 -1 -5 -5 -5 -1 7 13 14 11 8 8
112 98 113 87 41 62 54 83 61 92 88 111 85 67 89 52 55 33 8 11 35 65 75 88 78 77 53 38 16 18 28 34 43 17 10 17 18 12 4 -1 -7 -5 -3 -3 8 3 3 4 6
186 125 77 89 53 47 53 52 77 94 62 83 111 101 76 81 76 39 18 28 24 46 56 63 55 69 69 46 24 13 32 49 58 44 14 19 28 27 24 15 4 -1 0 2 14 8 9 10 11
58 98 91 64 75 61 32 52 82 74 86 67 100 99 65 95 84 73 40 48 23 48 42 49 57 55 55 54 43 15 5 54 69 56 53 54 41 34 35 28 26 21 14 37 30 20 23 25 26
151 109 111 66 46 51 37 73 55 85 120 71 88 172 140 90 82 97 80 109 66 47 25 43 56 57 47 51 56 42 39 61 63 65 63 56 29 38 56 54 71 23 59 47 42 37 36 35 32
150 102 58 38 37 49 51 50 48 70 58 64 70 90 110 97 96 93 83 69 63 43 29 42 47 59 62 66 68 29 44 43 42 43 50 26 28 42 46 87 88 85 81 65 59 51 40 13 32
104 86 70 59 123 133 109 33 85 52 56 51 52 105 103 90 83 87 66 47 49 44 45 34 40 52 61 68 62 38 37 28 29 48 40 26 50 79 61 73 81 76 67 59 62 57 37 37 46
135 65 120 75 75 127 93 51 54 75 96 74 162 174 113 84 69 66 58 52 70 59 55 63 50 55 55 57 52 45 41 40 43 43 51 58 105 106 59 74 58 55 80 62 65 59 69 70 60
97 104 135 224 50 73 67 67 64 58 117 153 118 106 119 114 104 66 63 65 78 91 80 68 58 50 58 48 59 50 56 62 48 55 59 67 110 117 89 66 82 74 81 75 78 75 87 80 85
83 167 119 144 45 77 87 62 77 84 109 75 73 86 98 107 109 110 91 85 96 97 99 80 79 59 54 49 56 65 64 68 63 64 64 48 89 96 87 119 115 105 83 79 88 87 98 101 106
180 139 129 91 61 38 67 80 55 93 80 74 78 59 72 88 88 94 95 93 98 85 71 65 84 81 58 56 51 76 67 84 82 75 73 69 76 95 105 105 139 120 137 102 93 98 123 129 120
125 128 82 85 53 75 49 78 14 35 40 60 67 69 65 60 70 71 76 102 132 154 149 126 129 85 82 68 77 68 89 101 87 90 101 86 76 84 101 97 170 154 135 132 124 131 144 148 144
102 77 72 77 69 56 25 73 58 -9 62 86 82 84 88 66 73 81 81 99 110 98 103 112 115 112 90 81 104 120 110 118 77 95 112 99 88 82 98 122 181 198 157 141 176 159 159 180 183
85 94 42 76 67 76 37 43 99 99 72 69 68 57 69 75 59 65 81 97 125 131 138 134 131 103 110 98 121 169 157 138 130 119 99 96 120 122 134 136 135 152 148 154 182 182 198 206 195
101 49 127 105 57 60 63 52 51 15 45 47 47 62 62 66 62 101 155 137 141 142 136 122 137 138 149 145 172 160 180 158 151 153 148 150 149 149 158 186 159 178 219 190 172 174 215 255 255
215 74 111 111 91 81 71 48 76 33 28 35 43 59 80 93 108 119 107 116 134 134 137 134 131 122 152 183 214 222 190 170 199 193 193 214 206 184 195 204 200 215 251 221 204 201 272 288 304
127 53 79 145 58 79 113 51 15 37 75 93 74 62 81 111 131 115 87 119 152 160 159 168 165 169 171 176 205 221 256 253 201 219 243 207 186 178 174 210 209 198 240 266 255 260 294 344 309
89 129 99 120 83 83 35 89 31 38 61 78 78 89 110 110 150 154 175 173 173 181 183 175 164 148 140 127 142 152 187 205 225 189 152 121 104 135 155 188 238 215 224 292 282 320 347 340 354
140 90 94 110 128 167 65 142 80 38 58 84 116 135 144 163 191 189 188 178 171 170 159 152 149 143 139 125 109 117 144 199 202 183 137 132 146 129 122 144 198 250 244 274 280 302 371 393 402
92 108 111 105 96 95 84 117 54 40 62 87 111 135 152 147 158 166 156 152 149 138 135 130 132 134 129 119 112 94 101 137 177 166 160 157 151 160 149 146 179 222 259 291 314 317 326 352 371
106 91 165 125 113 129 121 132 219 158 168 73 121 158 168 152 135 127 121 113 96 95 97 103 116 122 132 138 136 133 127 125 137 158 187 150 156 184 184 162 160 172 192 208 246 269 307 337 361
123 118 227 151 105 77 131 112 158 132 150 158 161 143 134 102 81 67 49 37 41 53 71 100 127 149 173 184 188 207 195 175 164 168 180 208 210 197 165 153 145 153 172 205 208 242 287 285 306
135 160 209 222 185 145 112 151 88 122 124 108 102 120 75 60 45 35 25 29 45 74 94 99 116 140 177 195 202 191 202 236 233 203 181 191 183 179 138 135 136 125 132 135 174 256 303 314 292
166 97 155 167 160 129 84 124 140 134 138 104 81 76 49 25 28 12 8 22 43 67 83 83 93 123 153 178 186 177 177 175 181 193 201 165 161 158 154 150 144 142 130 140 173 226 283 263 292
103 106 106 141 148 205 130 144 93 67 91 74 67 50 35 36 34 28 30 41 45 64 80 81 80 95 99 104 117 131 133 130 140 149 161 183 180 167 140 128 131 142 130 130 152 204 245 283 353
128 92 60 94 54 87 137 107 57 101 96 54 45 24 13 47 49 45 43 49 60 65 70 76 71 68 72 81 77 94 124 145 153 189 231 240 207 173 140 101 99 81 93 112 114 170 215 242 251

GFSSGP_con_3kmhel_036.txt.gz
Helicity
76 88 84 100 110 94 120 132 93 74 134 89 133 202 192 97 77 102 53 90 104 73 87 42 43 25 -2 7 -18 -17 -16 30 47 62 53 38 34 19 12 15 17 20 28 46 34 23 22 21 21
51 105 74 108 138 152 110 53 80 57 102 144 124 107 149 108 16 41 40 59 84 86 74 73 68 54 35 -2 -3 -15 10 28 44 42 35 20 17 12 17 40 51 60 63 46 30 21 20 21 23
31 73 109 134 114 164 144 24 47 123 71 38 18 68 73 128 151 53 64 30 123 81 79 102 79 77 56 24 17 9 9 22 25 21 8 7 6 17 30 53 48 42 38 38 28 24 21 20 19
28 63 75 159 155 80 89 44 103 105 46 72 118 76 138 137 95 79 27 60 123 50 195 116 100 84 55 49 26 12 8 25 26 8 3 3 2 14 14 20 24 23 19 22 24 23 17 13 11
47 123 146 154 152 133 66 89 110 48 57 41 76 60 94 113 54 27 16 66 94 193 147 118 90 68 59 63 54 32 20 36 39 10 9 9 9 8 -0 1 3 8 16 19 17 15 14 10 8
88 130 232 167 118 114 105 31 87 147 59 97 76 82 94 42 63 23 3 23 71 100 67 95 96 70 70 66 58 38 55 34 42 25 17 12 16 10 10 5 3 7 11 14 7 4 5 3 5
47 119 131 155 98 58 88 70 127 92 98 87 86 138 66 156 87 31 18 49 61 77 77 81 83 89 82 77 67 51 46 44 52 37 37 35 25 20 25 20 17 17 15 28 15 9 9 9 9
158 78 127 106 150 117 31 63 71 71 109 59 113 192 145 107 103 66 70 66 69 57 48 40 66 73 61 58 52 70 47 67 58 45 51 58 48 35 31 29 20 30 29 42 34 28 24 24 21
172 125 101 55 117 99 47 119 121 117 132 88 80 94 108 92 116 120 150 146 109 88 68 28 70 47 46 66 61 57 53 70 68 59 56 57 38 33 50 34 60 35 55 57 52 48 43 41 33
116 118 57 37 76 119 55 91 50 97 110 123 94 66 90 69 107 140 152 97 102 93 44 63 71 39 40 69 90 63 58 83 67 62 54 27 13 42 48 83 77 77 79 73 66 60 53 41 42
155 74 70 13 93 156 96 92 99 68 85 76 70 44 77 105 88 91 88 69 61 46 77 113 91 66 54 119 79 54 78 65 59 56 72 11 12 79 142 107 91 95 78 74 81 63 48 36 53
162 46 118 66 -19 81 135 143 48 90 83 80 119 218 46 77 87 86 78 61 60 52 38 49 108 98 90 103 80 41 70 58 63 69 77 36 39 162 110 119 88 88 82 63 76 73 46 59 78
105 158 36 118 56 77 138 179 139 97 85 122 183 210 136 94 68 64 73 51 94 101 69 69 41 85 89 94 87 77 77 108 52 57 99 70 106 159 154 138 127 90 123 74 94 86 90 97 76
101 166 289 163 109 114 168 102 118 98 84 91 128 115 85 101 97 84 62 59 91 89 117 104 83 37 70 97 77 92 97 117 95 76 80 91 151 169 174 134 147 132 156 112 130 121 124 112 117
145 175 228 191 92 53 99 132 122 88 126 103 88 75 82 92 95 99 106 74 83 92 109 115 111 104 71 60 78 117 74 99 121 100 95 99 65 170 154 137 151 173 167 136 141 155 155 168 169
167 192 164 178 99 99 -4 74 47 72 95 107 95 83 74 54 58 103 106 106 110 138 155 119 111 111 106 93 108 78 109 91 122 129 132 128 127 131 174 210 206 210 190 185 176 203 204 202 203
155 153 123 125 90 104 71 53 43 84 70 77 64 68 75 74 71 62 103 129 119 139 163 189 190 140 95 98 76 134 115 147 145 132 136 141 183 168 177 174 211 230 251 234 179 199 269 235 209
112 152 81 79 113 91 86 55 123 128 150 87 122 137 126 112 85 68 64 133 177 185 136 150 167 137 159 162 138 179 175 101 161 184 188 148 189 203 225 204 211 294 277 256 207 225 276 247 209
77 83 102 42 94 81 74 58 68 113 97 77 81 81 81 87 83 95 184 220 268 265 262 254 256 235 236 179 207 277 235 181 161 130 129 187 186 227 234 247 233 337 306 273 231 265 278 246 272
156 132 103 167 142 97 84 50 74 71 93 61 65 72 71 85 93 210 208 176 169 162 196 204 167 167 163 179 194 201 217 219 194 182 150 141 233 238 293 253 262 266 339 304 275 320 360 304 345
157 177 126 218 172 105 142 77 36 98 71 68 98 97 120 131 184 201 138 82 136 162 171 174 181 202 203 217 227 220 216 272 269 229 174 146 149 190 266 273 285 277 252 335 338 362 381 358 348
129 160 134 166 135 102 82 88 29 50 102 110 95 54 60 147 235 270 233 161 87 108 140 162 165 156 147 149 165 159 159 160 194 237 186 155 139 122 120 167 247 292 269 269 333 403 428 468 391
205 186 239 152 138 182 116 107 52 170 101 95 119 180 188 193 222 187 171 132 130 134 147 147 147 151 143 108 119 126 125 127 133 162 189 200 162 134 150 124 124 231 272 253 279 380 393 465 469
212 242 159 117 112 120 106 89 68 89 86 113 124 97 106 108 117 135 146 173 146 123 126 121 123 126 136 131 99 88 95 103 110 110 143 172 184 203 198 157 151 124 156 208 277 294 362 416 452
136 191 159 150 155 133 168 133 96 113 115 147 63 96 104 106 136 151 130 127 112 98 86 87 108 108 125 140 149 156 156 139 129 119 123 165 168 202 183 196 177 168 151 168 198 245 305 353 409
199 147 175 150 110 134 160 116 167 213 214 103 175 152 118 134 123 114 107 87 81 66 67 67 89 109 145 165 177 209 213 189 186 196 196 166 176 190 187 162 160 143 143 153 170 212 242 301 312
230 175 172 212 175 126 112 131 148 203 220 229 123 99 99 105 94 81 67 47 38 51 72 90 106 120 132 144 153 182 201 233 220 195 192 230 221 234 219 197 196 149 154 155 159 165 172 227 270
211 156 184 190 165 128 71 59 103 115 130 138 117 105 91 63 74 78 61 50 50 69 84 104 101 91 107 131 159 172 186 186 169 164 174 204 226 207 219 184 165 161 149 141 152 154 165 194 286
156 145 156 179 173 183 113 98 99 73 96 102 83 106 90 79 101 80 62 54 57 90 83 95 98 100 84 93 118 135 138 145 150 161 175 229 254 266 209 185 168 169 172 171 168 148 132 159 205
95 88 164 108 123 156 169 118 43 62 95 108 121 81 45 110 104 72 52 51 81 94 86 99 106 104 83 96 101 113 122 140 181 206 200 184 184 207 215 207 185 170 146 130 127 115 108 91 137

GFSSGP_con_3kmhel_039.txt.gz
Helicity
113 103 67 93 147 130 151 179 125 105 188 141 88 104 120 162 132 101 47 29 73 62 39 31 37 29 24 22 10 -0 9 22 27 49 36 25 18 6 5 9 26 28 44 32 22 25 24 20 16
98 79 69 104 178 172 174 148 157 80 63 125 153 118 142 203 91 40 70 48 77 86 50 28 50 55 49 33 5 -22 2 43 39 32 23 22 6 6 26 44 50 57 50 31 30 27 20 17 17
49 45 135 136 148 148 162 95 91 96 78 87 137 128 151 166 62 9 65 104 63 90 78 37 66 83 57 35 10 -5 15 25 31 28 17 6 8 11 40 50 55 50 37 29 27 21 16 12 9
20 144 141 209 216 56 128 253 89 122 114 90 80 152 156 143 74 12 112 128 52 110 121 96 97 95 87 54 31 24 22 18 11 11 12 11 17 18 24 29 30 31 30 28 22 14 10 6 -0
-3 184 241 245 173 23 36 19 47 68 46 63 90 130 155 137 55 53 134 130 144 120 139 124 88 91 90 76 41 51 45 36 13 9 15 10 18 15 13 13 13 16 21 21 15 10 7 4 -5
170 201 337 221 158 29 101 85 81 114 81 111 89 142 119 64 64 32 137 177 163 139 133 114 86 69 88 97 75 66 67 50 27 10 18 20 17 11 13 13 16 18 17 13 10 10 10 7 3
182 109 199 297 186 139 71 33 73 128 147 108 61 166 117 99 28 26 114 124 119 95 103 110 89 75 90 102 76 85 67 60 54 27 31 31 30 30 23 19 19 18 19 13 8 7 11 16 12
230 233 108 180 222 181 91 34 50 72 148 88 58 121 111 82 116 71 119 81 69 34 51 89 98 90 82 80 90 67 95 82 70 48 53 51 39 36 43 36 30 32 40 28 20 19 20 20 15
297 157 58 159 216 102 64 250 161 94 132 114 77 85 82 88 136 144 179 175 84 50 26 33 48 61 64 69 81 84 91 83 77 65 56 55 37 41 45 42 51 52 67 53 49 43 41 38 32
274 195 46 55 19 157 162 283 115 149 122 144 117 113 111 101 144 145 132 156 126 44 28 30 21 19 44 56 81 69 83 83 85 70 60 51 42 42 49 58 65 52 76 71 65 62 57 57 50
214 101 59 59 39 -56 58 171 36 71 122 126 63 56 86 88 109 128 121 120 105 91 119 89 20 11 52 61 58 76 83 75 79 82 64 48 46 50 74 91 96 107 96 83 80 69 55 53 61
131 89 10 36 71 -12 45 218 121 80 85 128 72 51 81 69 59 72 75 64 87 72 70 104 97 23 97 89 67 66 92 76 69 80 66 55 53 87 101 105 110 124 120 106 87 79 61 55 62
148 83 53 50 38 3 24 297 148 99 78 116 214 122 30 43 50 56 57 60 65 58 54 66 104 107 101 132 83 76 74 82 68 82 66 55 69 120 133 116 125 111 110 112 97 87 83 79 80
122 140 169 135 -12 -58 22 167 246 125 123 114 106 144 112 45 35 92 79 74 101 69 71 20 55 80 117 127 101 83 75 77 84 98 95 78 83 121 141 155 148 129 134 91 101 109 109 107 119
227 118 104 148 126 93 54 123 10 115 155 131 97 76 96 98 93 56 59 34 66 88 83 75 31 60 118 114 105 91 99 125 110 98 122 122 125 130 150 167 189 170 162 130 120 120 143 146 144
200 173 175 124 142 119 84 49 41 102 122 114 106 90 85 73 55 64 63 49 32 111 130 104 104 90 77 119 100 104 105 120 123 132 112 107 148 178 195 190 190 191 175 161 174 192 188 168 171
179 160 170 168 139 139 115 29 52 81 97 98 98 87 79 96 89 66 73 102 151 112 89 110 132 119 90 79 91 95 107 119 96 131 153 125 136 174 218 212 202 224 221 214 209 203 236 252 235
130 121 144 153 169 132 108 74 86 117 98 71 68 74 82 88 85 66 85 148 182 246 271 213 146 133 117 114 67 76 98 121 148 149 129 133 157 165 213 228 259 265 264 237 284 289 266 249 288
178 191 133 124 118 108 89 82 64 108 113 96 91 85 118 125 123 136 188 214 215 277 296 281 255 253 204 210 178 155 132 146 143 149 145 167 173 150 208 253 279 313 303 274 286 341 277 262 323
128 98 88 150 89 122 105 83 70 86 88 80 72 69 83 119 124 179 222 255 236 206 216 216 212 206 211 225 231 227 216 206 206 169 157 173 192 192 230 217 269 277 335 326 339 369 349 318 360
115 152 145 150 250 223 152 103 83 75 88 111 114 98 113 105 100 161 203 211 215 195 152 152 167 165 145 149 175 221 256 246 228 209 176 132 124 132 166 218 228 254 309 320 321 349 367 374 446
122 137 135 166 192 138 92 79 60 91 79 125 143 138 105 118 163 168 171 154 120 107 156 181 197 207 194 153 118 109 123 145 142 139 147 129 122 98 88 147 187 238 249 276 312 299 359 424 391
137 128 184 189 193 144 111 87 45 81 151 153 143 136 113 143 189 210 186 137 103 136 156 172 187 186 183 182 157 149 138 117 108 110 129 106 119 131 126 118 146 171 184 191 237 322 354 392 393
151 282 269 212 156 105 86 97 67 104 112 199 188 151 168 192 197 187 189 168 135 137 146 145 157 157 170 159 165 170 151 138 136 124 118 121 136 131 127 168 172 142 144 129 168 181 220 275 327
263 301 262 201 154 74 120 115 81 103 104 217 184 122 108 122 158 142 143 156 138 129 121 112 124 139 154 167 170 177 177 158 144 136 141 155 140 160 176 154 118 122 126 102 118 143 178 239 291
229 228 170 120 164 117 180 82 93 104 144 172 125 68 86 109 117 112 112 121 120 115 109 104 111 116 125 126 143 173 210 199 193 163 147 155 166 176 210 197 183 163 135 123 122 135 147 194 218
243 159 213 187 149 131 119 128 131 160 211 187 149 128 103 109 94 103 113 106 99 95 94 94 105 117 131 130 131 161 201 231 215 198 178 176 214 217 204 218 220 205 174 152 145 151 156 162 185
259 270 232 250 169 139 112 96 84 132 166 192 179 112 72 101 114 115 95 70 73 83 87 118 125 122 110 109 125 139 165 200 219 200 194 206 231 265 245 189 171 170 167 174 167 155 150 156 179
273 263 188 165 143 147 112 100 69 57 173 189 156 94 83 96 126 110 84 80 95 104 106 111 125 114 107 115 100 111 130 147 153 168 179 188 190 209 195 164 164 175 166 158 157 166 169 167 154
221 151 172 119 146 127 121 112 95 74 129 126 99 98 96 123 106 93 69 95 110 112 93 75 90 108 108 91 91 105 116 122 133 144 161 167 173 177 166 168 181 182 177 181 167 151 140 148 151

GFSSGP_con_3kmhel_042.txt.gz
Helicity
115 108 71 112 179 160 161 159 181 196 163 106 60 36 61 198 135 92 71 54 70 55 20 15 38 22 16 11 6 23 40 44 57 46 36 25 15 4 12 26 22 38 27 19 21 17 13 14 28
70 88 108 137 200 178 175 189 220 167 91 77 39 68 131 166 140 84 99 56 72 62 37 19 31 27 27 15 9 3 10 46 42 33 28 14 5 2 29 35 41 46 29 23 22 13 8 9 16
19 56 146 193 187 149 203 158 169 118 89 116 119 133 106 135 166 62 33 58 69 69 53 44 41 18 20 15 18 18 16 6 5 20 14 6 12 25 54 54 51 37 27 22 17 9 4 2 6
62 90 144 189 203 111 202 303 137 103 117 127 116 162 152 120 74 52 54 76 105 80 61 62 77 67 29 25 29 40 45 -0 -21 -1 13 15 31 44 44 37 29 24 19 18 12 5 -1 -7 -6
46 61 185 196 154 68 189 255 89 86 78 119 136 177 205 192 120 100 90 83 96 105 82 77 99 86 72 53 72 75 65 45 -13 -24 1 28 34 36 39 34 28 24 18 12 8 1 -8 -12 -13
151 82 209 207 109 -3 89 115 116 67 105 107 122 174 202 159 169 98 123 56 81 102 129 114 102 99 101 76 90 75 86 55 22 1 5 17 28 23 20 22 27 27 23 17 10 7 3 -3 -8
194 196 209 219 104 66 99 74 150 87 120 159 75 167 141 143 147 116 134 118 94 110 102 108 111 88 104 98 81 88 96 70 51 31 25 26 23 33 27 18 18 17 17 12 11 11 9 2 -1
277 183 93 145 139 176 118 105 70 87 167 149 122 114 118 120 145 133 127 106 99 107 111 119 107 84 85 89 65 84 102 83 72 51 59 47 35 34 43 29 28 21 30 20 19 16 15 10 8
346 258 141 127 209 215 168 203 135 120 119 175 152 122 131 137 136 165 159 135 108 79 69 93 81 71 69 87 74 80 98 84 78 78 63 53 29 35 45 32 26 24 52 35 32 30 29 28 24
255 175 150 98 177 213 181 186 239 191 146 155 181 217 170 172 148 143 136 100 67 33 18 32 46 47 54 62 83 95 88 92 85 72 64 60 49 39 43 49 50 56 65 61 51 45 44 52 45
292 161 190 79 97 34 33 148 172 239 123 113 70 106 110 162 130 129 121 89 42 28 28 -5 7 28 51 59 62 83 80 85 78 77 69 65 59 47 48 49 59 59 75 72 71 69 69 64 67
178 117 105 91 46 41 -82 -12 146 230 215 51 52 56 69 92 101 82 119 111 102 78 31 13 8 23 13 55 53 61 90 87 83 64 64 78 76 59 49 58 67 81 96 93 91 86 80 76 75
199 34 95 63 28 84 30 8 196 387 252 55 142 116 76 80 71 77 75 84 85 90 77 65 56 53 21 49 57 64 86 93 81 77 63 81 76 75 75 61 82 96 106 102 102 96 91 89 87
162 195 71 69 27 9 91 126 287 309 111 61 126 110 91 71 54 86 62 60 76 56 67 78 77 94 125 84 66 72 86 79 92 84 59 78 95 99 104 100 93 95 116 105 101 96 99 101 115
100 146 146 63 48 60 60 25 31 146 143 93 83 88 102 89 71 51 42 69 59 47 39 59 103 120 145 122 93 86 82 92 100 90 96 85 103 117 132 151 138 138 138 128 123 97 97 102 111
169 146 137 99 49 42 -1 5 111 251 205 98 85 110 123 120 70 46 43 48 80 96 68 59 80 114 138 147 144 123 95 100 85 108 117 114 123 147 164 175 178 198 198 178 178 164 146 121 170
272 196 127 136 73 131 81 76 88 28 46 62 70 86 94 111 112 63 47 43 54 74 99 110 97 89 94 112 125 119 108 128 115 124 130 142 152 155 170 174 180 244 218 215 214 204 223 206 189
87 153 102 143 111 130 116 88 78 61 36 50 76 85 85 85 91 121 112 147 167 160 147 126 105 109 115 121 108 97 105 98 125 130 136 134 129 157 195 204 201 239 238 227 263 247 263 245 235
169 181 170 206 140 109 62 29 15 47 116 72 75 76 75 82 116 136 196 231 228 258 283 263 219 207 157 161 150 133 106 97 100 127 139 143 172 168 173 183 191 247 269 246 257 275 272 268 298
149 157 117 126 111 80 68 32 77 30 49 90 73 78 72 97 112 152 189 227 253 244 225 228 247 237 213 187 181 191 174 144 123 115 127 131 144 151 167 170 192 215 250 254 264 305 306 279 360
145 128 148 119 145 149 78 45 41 29 52 82 88 71 76 73 82 125 160 184 196 219 225 219 224 211 192 199 219 225 232 231 214 187 152 130 123 132 152 155 173 184 211 240 256 281 307 235 275
122 155 158 104 149 125 131 91 59 59 42 49 58 89 98 132 139 141 152 176 170 170 180 185 186 206 230 228 210 197 177 177 176 168 163 140 123 120 127 136 153 179 203 203 235 240 239 291 240
127 117 160 178 210 156 134 70 12 83 81 56 92 145 160 157 170 165 158 160 177 178 171 171 189 213 216 207 195 170 164 137 137 140 133 124 114 105 109 127 121 163 208 188 174 195 219 260 223
106 214 261 240 176 122 108 83 2 67 73 94 171 179 151 176 188 201 181 171 169 167 173 199 205 202 186 166 166 166 168 162 152 146 140 137 114 112 102 106 127 129 164 151 161 138 170 194 199
174 216 219 203 191 67 123 107 109 53 70 90 189 210 205 200 224 217 178 155 157 171 182 170 164 161 154 145 148 156 163 154 148 136 129 136 131 135 146 135 129 139 116 125 136 117 119 127 165
189 187 193 115 108 92 148 58 66 58 46 106 208 209 203 188 160 142 135 145 145 141 135 124 118 124 127 130 141 144 155 144 150 147 146 142 141 156 179 208 212 220 193 159 124 126 124 120 127
199 184 160 182 157 103 79 111 126 80 86 169 165 172 148 146 137 118 123 129 121 114 110 100 104 103 108 109 109 130 147 165 167 179 152 143 154 160 175 212 197 191 193 184 163 137 140 136 124
197 256 222 223 123 86 74 69 52 79 98 160 186 165 135 123 121 118 116 114 118 104 96 101 90 94 102 106 114 118 136 153 163 162 186 185 187 191 208 186 168 164 171 183 184 182 179 160 150
297 249 268 238 212 147 68 -10 26 24 82 131 158 128 104 89 98 115 115 115 116 119 101 87 88 97 110 113 112 111 119 135 145 153 163 163 159 177 173 175 149 151 166 177 173 171 160 151 153
190 180 246 215 193 201 138 56 49 22 87 176 171 128 90 94 122 128 127 132 127 112 107 91 79 89 95 99 97 106 115 121 132 148 150 148 136 155 170 160 147 151 154 147 143 135 127 111 114

GFSSGP_con_3kmhel_045.txt.gz
Helicity
198 133 83 126 176 175 162 152 129 187 80 50 56 78 61 123 129 105 69 31 60 26 4 -18 11 7 6 -22 -9 12 34 53 67 50 38 31 18 14 20 19 32 23 14 10 2 -2 -0 15 32
175 102 127 129 173 176 180 136 158 176 141 76 112 128 121 127 106 79 116 41 56 49 20 -14 24 19 24 9 -6 -11 3 53 51 40 26 16 8 25 31 31 35 26 15 9 3 -1 2 13 33
172 113 166 152 133 140 160 155 199 185 139 122 120 153 115 131 101 71 67 85 82 59 45 21 34 46 29 22 14 5 18 -5 11 26 16 6 7 39 31 50 40 20 13 8 2 -1 -2 6 14
156 158 162 156 148 124 192 261 268 233 114 115 99 129 147 152 81 43 59 83 99 84 62 49 46 44 28 18 27 43 30 -5 -28 -14 -2 11 21 54 44 38 22 14 6 2 -5 -11 -11 -7 1
178 177 181 151 152 98 153 231 249 289 181 114 124 115 159 168 87 83 74 73 98 101 71 69 56 48 36 24 37 50 42 26 -11 -29 -22 -0 24 31 15 16 8 2 -5 -10 -14 -18 -22 -18 -6
259 190 193 149 135 71 106 155 186 214 142 94 129 157 159 159 151 97 64 49 70 99 86 74 80 57 46 44 66 61 59 51 33 7 -4 -5 7 19 16 8 -2 -5 -6 -9 -14 -20 -23 -25 -16
204 287 164 113 96 -13 101 175 176 247 185 136 73 185 165 188 164 119 89 78 78 108 113 130 91 83 73 75 79 75 70 52 43 33 31 10 -5 17 26 30 25 15 3 -5 -12 -15 -15 -11 -9
167 183 148 122 94 -24 51 176 95 184 227 137 133 99 116 120 136 161 163 135 115 99 117 111 105 92 91 80 71 80 83 62 55 48 44 50 34 26 33 35 30 30 32 26 17 8 2 5 11
323 162 119 150 108 -26 10 153 184 268 182 147 158 114 117 124 174 183 169 169 147 124 108 109 119 99 98 96 66 89 85 70 60 72 65 55 36 34 40 32 27 28 51 46 36 33 30 30 30
326 176 136 120 142 -59 114 66 180 231 402 173 108 189 197 133 135 125 99 72 71 64 68 89 88 76 77 89 100 88 100 89 79 74 71 62 56 58 63 44 36 39 61 57 52 51 50 59 53
246 118 163 123 109 4 41 40 103 201 359 145 204 89 165 126 129 114 88 59 46 22 33 19 27 41 47 66 92 99 98 88 78 71 70 65 65 58 55 52 45 50 57 64 64 70 74 69 67
170 137 106 145 130 127 -50 60 138 177 354 278 255 46 112 102 98 92 89 81 63 41 7 10 6 9 8 35 68 78 93 82 77 64 66 69 66 59 50 45 44 52 62 74 79 79 75 72 69
194 104 141 180 107 152 82 -20 45 259 379 291 121 41 74 104 115 121 106 100 88 49 27 18 25 5 6 9 33 59 68 87 67 71 68 72 67 66 59 43 49 47 63 73 79 83 84 80 79
137 120 158 210 110 58 48 36 9 180 259 270 86 55 56 87 100 121 84 84 87 65 47 46 53 30 47 33 40 43 72 82 79 68 72 79 82 78 80 68 65 64 77 76 89 97 97 84 87
123 170 203 122 79 71 96 74 -34 246 200 345 217 72 96 86 91 65 76 73 85 98 83 88 77 85 91 71 71 80 73 84 86 65 71 89 99 98 104 101 99 95 106 102 108 98 105 101 103
186 180 157 62 73 66 69 88 -3 151 229 321 243 72 80 104 82 84 84 62 58 75 70 121 121 135 115 92 105 109 99 102 89 90 83 86 108 129 136 141 134 146 158 161 157 144 138 138 142
227 136 154 108 38 129 138 147 124 111 161 289 238 97 79 91 112 97 77 69 56 40 48 76 103 142 152 139 134 125 124 130 106 110 115 99 104 134 156 167 166 197 187 196 197 191 201 177 174
183 167 155 134 112 128 105 107 -7 207 409 312 237 121 64 78 84 102 74 91 79 62 63 70 92 98 113 137 155 150 130 122 115 110 125 124 136 152 168 160 155 200 204 195 225 224 245 239 206
184 190 168 209 125 147 62 77 6 45 218 239 153 72 60 64 107 128 158 186 185 193 160 132 116 130 127 134 125 122 114 121 122 131 116 127 138 148 172 171 173 216 219 199 211 238 230 226 257
133 136 147 182 134 58 81 65 50 36 91 148 65 35 65 110 114 138 157 193 222 202 203 213 207 201 181 158 146 148 145 139 130 121 108 108 119 125 144 159 166 182 208 207 220 254 243 234 245
157 130 126 96 165 148 74 77 49 22 4 -10 24 46 67 75 104 137 158 179 189 209 215 221 235 242 230 215 196 200 199 192 176 157 133 124 126 127 140 149 166 163 186 183 179 207 223 185 203
135 132 127 105 146 94 94 76 58 34 41 13 37 44 68 86 124 140 148 172 175 194 208 211 221 230 243 232 214 208 191 175 169 169 167 157 175 160 151 147 155 163 190 190 172 191 207 221 166
118 95 100 98 124 87 101 68 30 65 59 42 47 67 75 109 138 149 160 173 189 204 213 210 217 225 212 209 205 194 191 174 157 153 159 162 152 138 121 108 115 134 165 161 175 175 164 177 156
86 150 173 133 126 64 62 61 -37 64 52 63 57 67 102 158 187 198 214 210 223 222 213 196 195 212 215 204 196 180 167 161 150 142 136 137 130 125 115 120 117 121 145 156 173 170 165 158 115
130 185 193 160 136 41 133 90 5 64 60 49 69 46 138 205 251 223 205 209 209 206 192 172 169 181 179 169 154 141 126 119 116 114 112 119 117 109 127 128 146 144 145 158 186 185 160 144 136
157 130 207 145 102 71 133 53 29 26 47 51 47 121 141 217 248 220 181 158 148 153 157 149 138 131 129 116 114 111 118 105 100 98 99 103 105 115 135 174 192 197 222 239 249 197 166 150 123
196 150 125 103 120 94 63 59 43 57 53 53 74 135 159 217 209 183 158 129 121 123 122 100 91 93 97 92 93 106 117 129 130 138 131 126 139 152 181 190 197 192 184 190 195 205 212 179 187
129 168 139 164 102 65 85 69 43 38 31 63 95 147 149 167 165 151 129 125 124 113 96 90 72 60 61 69 87 93 113 126 131 136 143 142 149 163 185 195 180 151 156 165 183 187 184 193 187
173 157 171 135 142 127 106 59 22 9 -15 25 101 121 126 123 116 114 129 134 129 114 92 75 70 63 59 67 77 97 111 123 127 128 141 155 152 163 171 171 158 151 168 178 169 180 175 175 169
140 123 163 204 210 174 159 82 66 20 10 32 97 110 115 104 109 121 138 138 125 112 95 75 66 66 66 76 90 109 120 121 122 131 134 136 149 153 159 166 175 186 189 182 184 179 164 149 128

GFSSGP_con_3kmhel_048.txt.gz
Helicity
156 149 117 147 142 145 165 165 106 110 60 66 87 75 67 91 106 95 46 24 25 18 -33 -40 -19 -12 -12 -28 -33 -21 10 26 28 26 28 18 11 11 9 17 13 4 -2 -9 -12 -8 -2 -0 12
161 144 158 156 160 181 175 148 139 124 107 66 118 129 106 114 129 76 119 44 43 18 -10 -33 -9 -8 -6 1 -14 -40 -32 9 16 17 13 8 11 16 15 19 8 -5 -11 -13 -17 -18 -10 -3 4
195 154 172 175 158 155 165 131 171 199 205 81 136 152 132 113 103 52 90 69 66 31 -4 -23 6 23 15 9 3 -11 -11 -45 -29 -7 -3 -3 8 7 14 18 8 -7 -10 -14 -19 -22 -16 -16 -23
204 195 198 179 148 166 138 189 178 252 204 145 141 149 148 131 72 94 100 105 85 43 7 20 29 35 31 22 18 29 9 -38 -55 -40 -19 -24 9 16 15 8 -4 -12 -12 -13 -18 -17 -16 -21 -28
181 231 284 173 168 171 143 152 207 229 256 187 161 125 163 136 107 95 111 109 90 53 25 44 48 46 44 24 21 46 22 1 -20 -30 -29 -22 16 32 3 -9 -18 -18 -21 -23 -26 -24 -21 -19 -21
293 284 296 225 180 159 144 137 152 221 227 188 166 162 158 121 105 100 109 111 92 70 54 49 36 54 46 25 70 46 24 15 18 11 6 -6 -5 13 8 8 2 -6 -16 -24 -27 -24 -19 -17 -14
321 377 244 222 184 145 100 124 119 252 262 227 123 186 138 142 116 99 104 103 99 99 81 68 51 66 48 65 74 48 44 33 31 23 20 36 30 18 6 13 18 21 18 13 10 7 4 9 15
227 301 263 246 217 154 62 71 108 179 220 217 90 174 110 107 155 171 148 113 102 104 91 87 97 82 70 65 76 59 54 48 48 44 40 44 32 17 29 19 18 34 31 29 28 26 28 35 40
76 185 240 208 252 141 76 93 142 165 221 163 142 109 89 125 156 217 202 158 111 88 96 133 107 100 95 72 44 63 70 58 56 61 70 61 47 43 36 21 18 30 40 43 41 41 45 54 58
211 154 104 225 263 163 49 61 146 205 311 222 257 225 179 120 123 130 113 107 103 67 84 107 114 105 113 101 86 81 76 67 63 62 67 65 60 54 47 34 28 20 45 42 44 47 54 67 61
169 118 149 138 147 38 37 2 76 165 292 253 384 353 132 78 95 97 77 58 28 51 74 68 90 93 91 99 96 95 85 69 67 60 60 62 59 50 46 38 29 33 38 44 48 59 66 61 61
98 75 154 132 152 118 9 -64 21 120 218 271 304 260 92 48 69 79 59 35 44 42 37 39 35 46 47 68 72 80 83 71 64 60 60 64 59 50 44 40 38 39 46 45 51 57 58 56 59
150 50 47 95 77 138 -18 -40 -67 106 155 193 279 251 85 56 44 68 79 64 62 58 32 16 21 22 26 36 46 57 65 68 62 65 64 68 58 53 54 43 43 47 52 60 60 62 67 63 63
96 58 102 132 140 122 113 -47 -20 -20 25 216 315 292 98 74 68 79 77 85 78 48 36 28 19 23 29 32 35 41 52 59 66 67 69 74 70 62 60 55 56 56 65 68 75 79 81 81 80
142 104 172 155 163 125 125 118 12 -79 -7 157 314 322 157 64 65 48 70 80 85 60 48 51 44 56 50 43 41 48 58 68 66 66 70 75 82 72 77 82 78 79 90 87 90 86 100 98 98
186 167 161 137 140 162 117 57 72 62 57 189 304 314 197 95 31 55 54 74 73 73 63 66 64 72 80 76 80 82 79 92 84 74 84 84 87 92 97 98 98 111 120 128 128 127 121 120 133
232 177 168 122 81 112 153 62 109 139 86 225 290 263 215 140 87 59 54 64 73 73 82 81 89 98 91 85 101 110 104 117 104 100 93 85 104 116 129 128 118 143 146 148 155 151 169 160 164
240 255 195 163 94 108 57 93 97 61 131 307 252 232 214 161 100 105 109 81 63 66 71 85 99 105 105 132 117 109 105 103 108 104 101 93 103 122 141 144 154 174 168 162 183 175 198 200 189
204 204 143 147 79 133 38 78 51 37 68 103 227 271 188 174 95 82 92 99 109 119 95 80 90 113 131 145 140 119 114 119 112 108 103 106 114 118 133 138 139 171 178 159 180 203 187 177 214
168 171 137 132 67 106 56 39 61 39 96 89 135 208 159 102 92 77 86 115 135 146 153 158 159 151 146 148 142 137 129 126 124 124 115 114 124 134 144 141 141 158 175 169 174 202 192 179 195
182 129 135 127 148 132 78 55 27 89 87 75 143 166 225 143 88 89 95 119 155 187 201 205 204 194 196 177 169 177 169 157 151 150 150 176 170 144 135 138 147 155 180 166 162 187 185 158 168
147 94 112 98 137 117 107 53 45 32 51 96 51 42 143 106 65 101 107 137 162 191 203 207 208 206 212 204 180 161 148 142 151 144 147 150 154 143 136 129 127 132 157 160 152 168 181 201 151
140 99 143 137 140 116 117 72 40 70 49 -35 -8 60 56 79 96 92 108 131 173 183 195 202 211 225 220 211 194 170 161 149 141 139 148 146 151 144 123 109 112 111 133 152 157 171 176 185 163
64 160 175 144 111 85 63 43 32 44 18 20 41 98 57 95 132 166 199 214 230 230 207 196 196 201 197 182 181 169 162 156 144 133 124 121 118 129 144 134 127 121 122 131 145 158 175 175 164
145 182 198 151 122 81 110 73 55 73 67 61 69 63 45 69 175 264 279 267 245 214 195 171 157 161 162 153 153 154 149 138 123 110 100 104 102 105 124 130 145 143 155 150 149 177 194 156 163
169 172 141 76 23 -40 35 -23 -10 -1 18 9 33 58 77 84 185 271 310 287 242 201 175 154 144 147 153 138 124 119 117 103 100 100 99 95 95 100 117 139 181 211 212 216 226 237 249 268 245
156 159 129 99 73 41 28 3 -2 18 30 49 42 42 51 103 149 231 272 244 218 178 150 133 135 129 120 101 87 89 91 99 99 106 102 101 114 125 152 171 187 207 217 215 223 243 266 277 262
102 146 155 177 85 46 -7 -20 29 57 54 59 41 40 76 121 159 211 215 192 171 151 146 139 118 97 75 67 65 62 75 91 103 115 137 140 140 144 153 170 178 182 181 172 169 180 201 223 205
212 194 187 146 109 38 31 17 9 38 103 120 44 28 86 118 111 134 154 150 144 139 125 114 94 74 60 59 56 65 81 103 123 138 149 150 141 142 144 150 163 169 166 160 164 175 163 155 160
147 139 160 143 126 87 84 77 94 34 -17 9 8 34 72 96 89 110 121 129 125 121 115 93 75 57 40 45 55 77 98 124 140 148 147 138 144 148 148 157 174 186 183 186 184 182 191 189 189

GFSSGP_con_3kmhel_051.txt.gz
Helicity
149 146 111 138 142 128 153 147 109 153 117 112 120 100 87 83 82 69 40 25 -21 -9 -56 -55 -47 -47 -47 -50 -45 -34 -26 -6 -12 -22 -22 -25 -12 2 5 -4 -13 -17 -16 -16 -21 -21 -17 -4 -2
172 152 155 141 165 162 154 152 107 129 180 132 118 101 90 92 89 64 84 30 -6 -9 -45 -54 -37 -37 -42 -33 -52 -64 -48 -33 -41 -46 -41 -33 -15 -3 2 -5 -25 -27 -24 -25 -29 -31 -25 -22 -26
177 158 195 166 160 144 135 141 118 157 177 114 117 108 107 89 99 47 107 53 35 3 -30 -39 -30 -25 -17 -13 -28 -53 -64 -76 -70 -61 -47 -27 -8 -4 4 -4 -23 -26 -25 -28 -34 -33 -31 -37 -38
205 216 248 156 142 173 130 149 168 205 142 121 147 128 107 96 79 94 97 85 69 31 -11 -10 -13 5 4 1 5 -6 -32 -65 -78 -80 -57 -30 3 5 7 -17 -24 -26 -27 -30 -32 -34 -34 -34 -34
172 212 277 239 142 170 168 152 146 208 228 182 171 161 152 137 91 87 100 99 88 61 9 -5 35 23 15 12 21 22 -2 -32 -50 -59 -75 -18 17 15 1 -10 -18 -21 -24 -25 -24 -27 -31 -34 -31
311 251 255 248 223 164 172 148 121 183 238 229 204 193 166 83 74 92 115 94 86 82 42 25 40 47 30 25 46 24 5 -8 -9 -27 -20 -12 -15 -7 -19 -7 -4 -3 -5 -3 -0 1 2 -4 -7
338 329 251 176 206 207 157 116 133 189 232 235 232 200 148 99 95 95 116 103 87 83 71 51 39 44 42 46 55 35 15 7 3 -1 -1 12 37 40 20 3 4 6 7 8 14 16 20 23 23
476 318 177 200 194 222 179 164 82 142 223 232 191 284 237 107 79 119 121 111 98 102 93 69 41 54 54 59 63 35 46 27 26 28 31 35 43 29 18 17 16 20 23 23 24 28 35 40 40
228 320 222 199 200 234 189 181 157 93 165 172 162 192 175 81 83 110 129 153 135 117 118 99 81 75 63 73 54 54 54 49 45 46 56 54 42 42 37 27 18 27 29 29 30 36 44 56 54
277 47 248 184 229 241 248 157 211 145 187 222 245 285 203 136 113 72 77 93 96 102 123 125 106 97 91 94 73 69 65 55 51 48 52 51 52 47 42 33 25 18 41 33 35 44 59 55 52
294 203 109 141 209 239 292 147 158 187 202 229 302 281 268 116 96 97 62 26 20 42 70 79 98 100 96 101 95 81 73 65 53 52 50 53 53 49 43 39 34 32 33 31 34 43 48 55 59
129 49 79 92 193 201 259 24 158 185 189 153 189 171 204 110 71 76 56 39 47 53 66 77 80 83 84 90 85 84 75 62 54 47 46 51 48 44 43 42 37 32 33 32 38 45 54 56 57
91 54 77 56 100 98 128 26 69 150 142 144 171 124 238 144 85 65 64 57 42 47 48 53 52 46 52 56 62 58 53 50 49 47 40 44 48 47 44 40 38 38 41 46 55 56 56 56 56
132 98 32 117 81 29 133 94 -36 9 -10 140 188 167 219 202 108 80 48 43 26 24 29 30 28 23 29 34 34 42 43 44 43 42 43 43 48 51 50 43 41 47 55 59 59 63 65 65 66
178 108 72 65 29 82 100 41 -82 -53 -24 102 165 195 208 241 129 77 61 48 47 31 33 35 34 31 30 30 35 36 36 36 39 44 41 44 53 52 50 51 51 56 65 62 70 75 81 84 87
144 125 95 115 88 101 82 63 -13 -136 -71 80 93 175 200 260 144 96 73 60 58 45 49 43 43 35 32 37 46 48 48 47 47 55 56 51 51 52 58 63 62 65 73 83 88 92 91 94 100
170 121 99 131 111 144 81 99 64 39 -187 29 73 159 201 259 205 117 72 53 47 38 58 55 45 34 37 55 65 59 56 65 62 66 63 54 58 58 67 68 67 76 88 102 112 110 115 111 108
186 211 196 138 106 107 99 77 94 30 65 29 143 126 175 260 291 147 87 68 46 39 39 46 55 56 64 79 81 82 70 56 53 61 64 60 67 63 70 70 70 92 106 105 114 112 119 120 115
163 195 177 154 56 97 74 91 62 61 60 161 107 188 192 297 292 138 89 92 86 77 64 50 59 64 84 102 104 96 91 89 79 77 65 65 70 71 81 89 89 95 98 91 100 117 118 131 141
126 160 161 154 48 54 67 18 12 41 51 85 108 109 181 265 303 186 137 116 100 91 96 98 83 95 96 113 119 118 105 95 99 94 83 86 84 90 106 107 107 103 109 106 110 122 149 152 162
154 131 157 127 88 101 53 87 56 67 83 39 51 125 166 187 296 190 126 123 109 112 114 131 145 160 165 139 142 138 133 121 119 136 144 161 158 149 133 119 118 108 132 137 127 142 144 166 178
132 105 117 132 142 94 90 47 56 31 33 58 80 130 217 228 206 154 106 104 114 136 159 178 196 203 204 180 161 146 136 128 135 134 133 138 153 157 147 134 127 117 126 128 122 140 144 170 182
106 96 115 143 162 131 131 90 29 72 16 -12 4 -12 114 44 118 136 113 123 138 156 179 194 204 221 216 201 173 151 145 140 130 127 132 138 148 146 150 143 125 112 124 113 111 128 151 166 183
107 194 209 171 150 102 96 77 44 63 61 71 67 37 -19 33 86 168 121 150 154 165 173 178 180 188 182 175 172 157 142 136 132 130 128 133 130 132 136 143 126 116 112 113 116 119 142 157 184
151 197 201 159 116 32 81 83 48 48 47 49 72 75 59 63 41 63 156 199 211 202 199 204 189 186 176 165 159 156 146 138 129 129 121 121 114 112 135 140 149 146 144 142 134 141 154 185 214
154 138 137 100 76 51 94 13 5 26 25 24 6 49 78 91 79 120 211 266 269 248 221 202 177 162 160 141 136 146 147 131 123 120 112 105 104 104 119 129 144 163 176 177 172 197 226 233 257
155 134 144 117 135 68 34 59 31 15 25 22 26 23 56 53 75 106 233 300 302 265 214 177 161 148 137 136 133 133 127 118 110 112 107 107 113 117 126 141 161 177 188 192 193 201 223 232 223
117 100 146 154 60 26 16 16 22 41 109 135 114 89 73 65 90 133 204 262 260 230 207 184 152 128 123 122 113 97 89 88 94 105 120 127 134 144 151 157 164 174 182 176 165 168 171 179 186
155 142 153 122 94 24 -26 6 9 45 80 59 58 54 38 44 83 140 172 181 198 197 178 153 141 123 107 93 80 73 80 93 107 121 136 150 158 171 170 167 164 166 161 166 165 178 180 191 196
127 89 130 112 71 96 64 41 40 27 -16 -21 4 -12 8 38 75 119 134 144 141 144 141 121 112 98 82 69 67 72 79 95 115 138 159 169 173 172 168 163 163 162 166 175 179 182 183 179 177

GFSSGP_con_3kmhel_054.txt.gz
Helicity
129 136 111 124 133 144 132 120 150 113 127 140 158 143 92 103 66 93 34 10 -6 -24 -47 -59 -63 -63 -59 -51 -17 -15 -21 -20 -41 -39 -35 -25 -5 -9 -14 -19 -20 -18 -22 -25 -16 -6 0 1 -2
149 128 158 148 159 130 113 119 129 170 151 135 118 115 106 93 77 41 59 18 -14 -12 -33 -53 -55 -63 -61 -53 -54 -37 -35 -49 -64 -62 -49 -35 -12 -13 -16 -24 -24 -22 -27 -29 -24 -17 -16 -20 -20
122 152 182 161 118 142 135 104 128 147 150 109 101 114 115 115 75 27 91 23 -3 -13 -19 -30 -39 -43 -29 -56 -67 -78 -85 -80 -82 -78 -63 -41 -24 -15 -16 -25 -28 -28 -31 -34 -29 -26 -28 -27 -28
153 167 194 223 162 105 210 108 163 134 105 92 140 97 71 90 79 105 110 51 12 -4 -15 -2 -28 -13 -21 -42 -50 -60 -79 -100 -104 -91 -81 -44 -28 -5 -17 -20 -24 -30 -33 -35 -34 -33 -37 -36 -35
196 183 187 200 168 90 120 126 167 133 122 137 172 122 119 100 96 81 132 84 47 18 11 -4 -13 9 -7 -8 -12 -33 -47 -70 -94 -93 -99 -35 -16 -4 -26 -26 -26 -28 -30 -30 -28 -27 -27 -27 -26
230 250 227 171 161 140 152 131 139 158 161 151 132 154 137 116 104 90 111 90 73 52 40 30 32 24 22 14 10 1 -25 -40 -53 -74 -65 -40 -27 -21 -20 -13 -10 -12 -16 -17 -17 -16 -12 -10 -8
119 249 196 140 141 156 182 159 126 139 157 201 195 194 172 140 141 116 127 88 69 71 49 46 35 23 44 44 28 20 -3 -13 -19 -11 0 0 15 14 -6 -6 -1 3 2 5 6 8 7 9 13
276 141 179 267 151 174 156 174 192 148 178 178 225 222 221 152 102 117 136 101 73 79 62 66 50 37 30 36 49 15 38 21 10 23 39 48 42 22 16 5 10 18 18 21 21 24 26 29 29
272 288 82 178 171 172 192 147 195 186 120 185 188 206 200 167 91 98 127 142 93 78 74 73 72 56 50 62 60 52 52 52 45 46 53 35 17 21 27 42 36 35 34 32 32 35 39 42 48
246 184 99 185 160 180 216 160 164 153 126 182 175 184 136 122 96 72 64 95 99 87 91 83 79 68 65 92 79 63 50 45 44 43 42 39 40 39 32 47 38 35 42 47 44 46 47 27 40
225 142 231 237 289 229 201 172 159 132 165 211 208 216 153 139 163 98 63 37 37 67 93 97 102 98 78 81 93 84 51 54 54 54 51 54 50 47 38 47 48 45 49 42 41 47 39 43 45
235 117 41 143 281 267 272 174 124 197 183 158 172 176 166 148 134 157 101 71 38 37 57 85 98 95 97 76 69 69 61 52 52 50 48 50 50 49 45 45 48 45 43 43 41 47 49 52 50
157 107 192 180 144 195 213 175 191 153 147 164 201 188 171 183 113 125 165 132 90 58 57 61 68 76 87 72 57 63 57 49 44 43 39 41 49 50 44 43 43 42 48 49 54 58 59 56 59
65 44 24 100 64 69 226 200 180 76 70 102 189 209 174 176 155 130 117 126 109 79 53 59 66 66 69 61 51 50 48 45 37 33 34 37 47 54 59 56 48 48 53 59 62 66 70 70 69
70 38 11 -1 -4 77 28 145 101 104 49 132 202 199 208 175 177 156 113 96 91 70 42 32 49 52 53 45 47 40 41 39 42 39 34 37 45 54 58 60 61 61 63 64 67 66 71 74 73
114 55 93 23 -24 51 30 120 83 144 0 99 138 168 184 164 188 193 128 117 80 61 38 31 42 37 39 43 45 43 43 43 45 46 48 45 42 45 54 58 62 69 74 75 76 81 82 80 85
133 67 69 79 6 78 35 83 49 138 29 53 94 129 163 145 155 189 175 117 88 53 45 42 39 31 31 39 44 47 50 50 55 53 54 50 49 47 56 60 61 64 75 82 88 92 95 97 96
120 101 50 64 71 55 7 48 34 63 67 86 89 93 146 132 146 166 180 153 91 67 48 51 43 39 39 44 48 61 57 52 57 65 68 68 70 68 71 67 62 72 82 87 94 95 99 95 101
87 93 73 119 88 98 45 45 39 36 57 111 92 30 101 100 117 139 179 153 108 70 59 43 34 39 61 70 69 65 71 78 83 82 73 73 75 78 79 82 79 82 88 89 95 105 113 117 129
74 69 73 93 35 23 36 44 64 34 27 27 78 60 65 82 123 152 185 168 112 90 71 64 58 60 54 62 72 80 90 89 88 99 86 86 84 85 92 86 89 92 106 94 100 111 141 158 160
95 60 75 81 65 56 50 55 60 23 16 27 14 69 145 106 110 151 233 185 142 125 111 96 92 85 94 94 111 114 117 109 103 100 109 125 128 122 113 105 112 114 136 140 128 129 139 178 185
84 77 55 67 64 82 45 91 39 32 38 18 11 -9 72 193 138 163 194 219 164 136 129 133 134 137 135 123 117 104 108 110 133 135 131 128 130 130 130 130 131 124 123 121 116 126 133 160 173
99 56 45 43 46 76 49 76 67 68 63 50 8 -4 5 88 129 132 187 195 154 119 124 127 132 156 172 174 176 155 143 145 139 132 128 127 128 139 149 161 148 129 125 107 99 100 113 140 156
69 93 111 110 79 63 66 76 42 58 56 45 51 41 5 28 150 171 152 138 137 131 150 135 143 163 170 172 170 161 144 136 123 124 125 131 139 149 153 158 139 127 123 119 117 120 123 131 148
69 60 164 116 97 59 93 78 71 45 39 86 129 84 70 31 95 91 95 94 112 131 147 162 160 172 165 159 161 155 148 142 130 128 126 130 135 146 151 148 140 137 130 124 123 128 139 151 167
68 75 127 92 62 50 82 44 54 54 34 3 16 67 80 77 64 31 35 106 95 115 148 171 167 170 172 166 158 154 149 135 130 137 137 131 133 134 138 146 143 150 157 159 161 165 170 191 205
143 136 171 120 85 54 47 57 42 39 17 55 42 32 72 79 71 75 82 49 103 172 187 197 197 188 182 164 147 138 136 133 128 135 135 129 128 131 129 136 145 154 165 171 173 183 189 200 224
121 91 110 112 41 38 27 36 46 101 149 134 109 92 76 63 57 69 110 126 187 248 260 250 219 192 174 158 148 138 133 130 123 117 119 123 127 133 135 138 145 154 165 170 167 162 170 172 181
117 92 111 105 110 93 54 36 56 81 113 105 84 54 58 62 48 62 93 112 187 252 237 208 184 164 149 138 124 109 97 90 91 98 110 127 133 146 150 156 160 165 164 161 157 165 175 170 166
108 64 49 68 51 87 91 58 32 35 51 36 46 51 3 -16 45 55 90 129 157 182 183 161 154 131 122 119 101 83 74 72 79 98 113 127 136 149 155 161 163 166 167 164 161 149 157 146 143

GFSSGP_con_3kmhel_057.txt.gz
Helicity
124 92 94 117 146 132 103 101 85 120 134 111 157 192 112 83 32 79 39 30 25 -1 -15 -55 -54 -47 -35 -14 -15 -27 -12 -7 -26 -38 -50 -7 -12 -12 -13 -14 -13 -13 -8 5 18 14 9 7 6
127 97 118 175 183 110 128 54 49 47 103 100 135 168 158 107 113 33 91 26 8 5 -30 -50 -63 -62 -50 -38 -25 -20 -22 -32 -44 -56 -61 -12 -20 -20 -23 -20 -21 -18 -18 -13 -8 -8 -11 -12 -14
133 110 140 212 170 125 120 48 46 94 134 67 124 203 154 102 90 25 55 37 16 10 -29 -8 -41 -36 -36 -44 -54 -54 -57 -62 -61 -65 -65 -30 -18 -12 -21 -19 -21 -22 -24 -22 -22 -22 -23 -21 -17
125 143 162 212 164 99 44 47 84 98 135 48 121 110 89 112 107 60 70 47 27 17 3 2 -33 -33 -23 -30 -57 -81 -99 -100 -78 -75 -72 -53 -4 -18 -26 -26 -26 -24 -24 -22 -22 -25 -28 -23 -19
180 126 162 140 143 157 87 120 128 123 75 133 39 64 76 81 94 74 103 59 48 30 45 5 -15 -21 -24 -23 -33 -53 -74 -94 -100 -88 -72 -53 -15 -37 -34 -38 -34 -30 -27 -24 -23 -23 -25 -20 -17
197 142 196 146 135 80 134 131 63 157 94 115 154 86 50 82 105 115 143 85 56 47 31 25 10 -10 -20 -9 -15 -19 -35 -52 -68 -90 -70 -45 -14 -22 -19 -23 -19 -15 -11 -7 -5 -8 -7 -3 -0
174 247 191 129 125 134 177 202 132 98 84 118 182 92 -22 92 118 160 154 110 76 57 47 52 34 19 9 10 3 4 -0 -13 -20 -9 8 5 15 2 -11 -15 -8 -3 4 6 10 13 17 18 24
159 337 238 141 157 119 130 185 209 208 124 116 219 157 126 91 124 134 270 107 98 105 52 58 47 31 19 11 19 16 23 26 25 33 41 47 42 19 14 2 8 11 13 15 19 27 31 35 40
160 164 277 278 161 99 131 194 163 162 89 147 162 205 139 183 129 159 236 128 109 88 106 79 62 47 41 47 46 48 50 52 56 47 45 33 19 19 23 58 49 40 35 33 34 32 36 37 46
216 229 65 159 215 126 139 186 238 123 73 68 100 109 112 120 143 106 161 158 145 118 111 99 70 62 88 80 62 54 49 45 37 36 44 23 51 67 70 80 62 46 46 43 47 44 41 28 40
200 136 179 169 153 255 230 235 179 147 142 195 155 148 105 136 170 126 106 95 97 89 81 95 106 153 115 96 98 86 73 55 64 61 60 60 65 63 49 64 59 52 54 47 53 58 35 46 48
186 129 181 135 169 242 248 198 223 250 179 130 156 208 113 110 118 167 153 104 83 58 73 92 91 109 122 96 90 89 59 76 66 69 69 76 63 66 62 59 62 58 67 49 52 49 56 54 55
234 54 68 91 273 263 311 210 253 257 114 138 181 190 164 139 103 137 165 178 144 87 81 81 89 101 118 103 89 102 80 79 73 72 60 59 64 65 55 60 62 57 59 57 58 58 60 65 63
124 219 160 118 103 218 209 241 377 148 107 109 143 182 170 159 136 97 124 144 132 99 72 66 71 75 113 130 117 108 77 69 76 69 58 40 49 60 64 65 63 61 62 60 65 68 74 72 68
16 215 112 123 111 106 131 184 144 214 148 69 123 142 171 161 141 120 77 97 114 115 89 67 58 60 68 76 85 82 67 72 67 53 47 43 46 50 65 69 73 69 66 66 75 75 76 79 80
33 72 117 63 60 87 30 67 73 109 186 250 106 168 147 164 129 151 136 108 100 111 110 91 99 73 80 99 93 84 78 63 54 45 40 43 46 55 64 73 77 76 77 78 76 79 84 84 80
65 74 43 60 22 37 12 24 47 39 82 45 148 119 123 126 127 106 133 138 124 91 84 81 72 50 48 60 76 65 55 53 50 44 49 50 53 63 73 79 86 85 87 88 87 91 94 107 107
67 103 -1 16 46 63 26 95 63 61 91 62 95 130 110 98 95 79 124 135 135 109 83 71 67 51 45 52 57 57 55 53 47 54 61 65 74 80 88 85 86 87 100 99 94 93 103 109 117
43 114 51 71 58 51 31 102 73 47 64 88 55 120 100 87 40 58 80 123 150 106 87 73 67 57 64 64 62 67 60 54 63 74 84 94 94 95 93 103 99 103 102 91 91 108 124 139 125
81 110 87 50 45 31 41 25 6 17 36 49 70 118 96 100 79 49 77 93 140 146 103 76 61 59 64 73 65 60 75 78 79 104 97 96 99 113 138 132 127 131 134 120 125 136 150 187 190
144 130 65 32 53 43 48 47 26 9 24 -5 -3 50 150 102 85 55 101 82 131 154 151 121 94 82 68 84 113 154 157 170 141 127 119 144 146 144 134 129 131 141 155 156 157 156 167 174 176
72 91 79 98 45 55 7 91 -18 -0 13 11 12 36 53 122 140 99 61 123 118 145 162 161 133 120 130 131 129 111 115 114 145 200 178 135 129 140 138 132 131 134 137 133 128 136 146 162 180
113 80 91 60 42 84 6 58 72 30 37 38 31 29 37 32 190 184 163 124 139 162 159 164 124 126 116 105 107 119 131 177 186 156 144 128 124 136 141 143 145 133 137 143 141 132 116 128 144
60 59 70 56 53 74 67 43 97 43 55 70 72 47 31 25 37 200 248 159 161 176 231 258 183 172 167 160 150 162 174 164 162 156 148 139 140 135 131 147 145 145 143 146 153 150 143 148 152
66 63 163 160 142 119 121 60 80 89 21 21 53 126 118 116 59 50 120 197 179 161 167 171 157 142 158 138 155 186 193 183 157 141 128 125 114 111 126 146 144 148 149 134 116 120 119 135 151
81 51 118 128 95 55 67 54 51 66 81 49 20 56 83 96 125 95 70 154 153 145 143 133 113 149 146 226 183 178 151 134 126 122 126 117 126 143 156 144 142 144 141 137 165 157 179 167 166
56 92 126 199 182 168 23 40 17 39 44 60 66 47 79 86 84 92 98 114 175 144 87 43 105 134 148 152 143 148 144 143 137 128 131 133 142 145 143 137 138 138 138 147 149 180 182 183 196
101 101 109 141 60 44 24 42 53 42 97 117 133 142 128 87 68 74 90 80 96 150 211 197 84 77 121 138 155 158 146 138 131 127 124 130 134 131 133 136 145 151 154 163 162 159 157 166 171
118 114 140 131 137 141 95 68 125 104 108 119 115 120 148 130 68 38 55 85 141 160 240 277 290 269 192 156 159 155 139 132 127 111 104 107 122 122 128 142 147 161 167 164 152 157 145 146 147
142 61 42 75 37 75 125 112 33 60 73 57 47 52 37 62 30 16 33 77 118 154 188 247 282 260 252 209 160 129 115 98 79 73 85 103 107 127 143 139 139 151 169 178 165 142 134 135 143

GFSSGP_con_3kmhel_060.txt.gz
Helicity
128 151 114 133 164 202 88 119 5 74 90 57 122 71 149 130 195 92 9 90 130 51 18 -16 -26 -20 -7 -9 -17 -11 -7 -10 -30 -25 -12 -7 -8 -9 -11 -5 9 23 34 33 24 18 10 8 1
181 109 132 170 187 167 102 76 115 124 159 87 31 114 190 190 122 102 145 54 69 35 -26 -44 -52 -34 -18 -5 7 -0 -12 -25 -41 -39 -17 -16 -11 -14 -10 -10 -10 -9 -2 -0 1 -3 -7 -9 -10
159 147 202 201 228 152 126 71 117 73 159 141 99 86 186 239 79 133 76 48 61 14 -40 -42 -67 -44 -27 -22 -21 -22 -31 -40 -50 -48 -30 -15 -15 -15 -12 -14 -16 -19 -15 -14 -13 -11 -10 -11 -13
176 178 235 236 220 127 75 49 118 154 106 166 145 109 74 151 161 91 63 53 54 -8 66 -3 -25 -34 -39 -49 -62 -60 -59 -54 -59 -64 -57 -8 -16 -18 -17 -19 -18 -20 -22 -22 -20 -18 -15 -17 -15
207 169 241 189 153 187 63 154 273 111 40 182 204 111 96 135 183 62 62 59 37 108 62 22 -5 -29 -42 -47 -56 -66 -83 -90 -79 -78 -70 -14 -34 -34 -31 -29 -28 -26 -26 -24 -22 -18 -13 -9 -13
240 230 272 195 93 178 112 180 195 179 71 100 169 163 98 98 149 118 99 79 74 82 50 28 9 -7 -24 -29 -34 -45 -57 -68 -85 -100 -65 -34 -39 -20 -10 -15 -10 -7 -7 -4 -4 1 2 8 10
213 265 258 169 157 139 153 198 275 168 101 185 262 64 38 120 99 251 110 93 118 10 52 57 32 16 -0 -12 -16 -19 -22 -18 -13 -29 -34 -3 2 -4 -4 -2 2 3 11 14 14 21 21 24 28
168 271 255 215 170 149 257 242 206 261 237 131 145 223 190 13 58 169 287 90 100 39 46 58 45 28 17 -1 -7 3 15 25 28 35 35 33 34 19 13 14 18 23 24 30 28 30 30 32 36
101 305 250 254 198 112 154 215 220 252 221 230 173 165 123 86 94 158 282 157 212 95 41 64 34 24 28 37 32 25 26 40 40 46 31 12 20 15 25 43 52 47 45 46 49 47 41 37 38
222 232 259 251 179 104 166 164 192 248 146 96 91 120 112 186 200 96 226 222 201 168 152 90 34 45 66 83 33 33 22 24 19 34 35 5 39 59 87 78 74 68 59 49 50 48 41 31 41
188 82 207 287 322 128 166 224 212 189 244 215 189 103 119 110 192 186 164 173 127 173 125 95 58 109 135 111 48 61 39 50 42 38 44 50 95 77 69 71 70 56 48 48 45 39 25 29 42
66 199 82 213 268 346 204 173 235 240 275 207 160 85 105 141 162 155 177 217 171 120 99 87 88 176 140 114 103 71 79 54 66 72 59 101 93 76 56 78 57 54 68 44 46 65 43 54 60
202 165 107 98 180 242 418 301 376 288 224 214 184 115 103 100 124 144 154 182 261 134 73 102 115 163 144 103 88 71 85 77 62 101 82 85 75 77 50 60 79 63 63 61 65 60 54 68 55
107 214 245 172 203 166 237 201 295 277 211 218 179 157 91 164 106 119 119 136 211 229 230 133 107 97 137 139 115 91 98 84 97 110 85 65 67 62 44 56 71 70 75 67 69 66 71 71 77
111 148 274 178 95 104 155 136 186 254 161 195 183 96 60 96 160 112 97 109 120 110 113 140 118 129 143 151 127 116 90 104 100 106 82 68 50 55 55 51 69 69 71 71 72 78 84 86 84
119 121 23 131 146 158 204 162 95 171 225 228 232 218 100 56 97 137 144 126 105 113 100 89 92 84 90 91 115 116 86 104 134 97 82 70 50 47 56 69 75 73 84 95 91 84 82 87 96
102 43 141 65 116 48 75 106 52 49 105 95 148 187 171 95 48 83 112 126 119 113 95 111 122 110 113 121 118 123 118 134 107 84 74 67 55 54 76 79 83 87 93 100 99 87 90 102 98
187 7 131 135 83 91 95 110 85 52 63 67 23 151 160 122 78 54 89 96 95 119 132 121 145 121 111 124 119 111 99 84 64 65 66 66 71 73 93 94 88 89 129 122 108 106 107 127 123
46 50 19 95 -37 93 89 77 100 77 85 54 108 132 97 184 75 126 85 48 108 106 129 147 136 113 116 121 113 98 87 63 62 72 84 105 112 111 119 119 111 127 130 123 115 115 130 135 153
89 7 27 61 22 62 84 124 78 46 99 106 99 114 82 84 130 212 131 59 80 131 118 143 140 125 110 112 110 93 83 64 58 72 103 124 147 160 174 170 161 154 140 138 138 154 147 162 189
60 17 76 76 67 67 66 131 80 -43 12 16 67 84 137 96 109 217 126 77 97 127 151 139 134 132 126 108 111 137 171 137 147 154 163 159 150 171 176 156 148 138 144 135 135 146 164 170 196
177 39 113 59 79 67 6 132 116 56 10 52 8 26 77 177 157 112 212 126 113 146 197 232 211 178 188 165 175 177 171 161 158 198 205 197 157 156 163 158 154 150 157 148 141 146 159 180 180
190 59 44 68 95 114 22 78 66 33 75 60 56 45 46 52 153 229 203 208 143 171 190 219 233 205 205 224 201 174 178 186 185 197 191 150 124 119 135 146 156 144 140 144 149 154 151 154 161
163 210 274 230 206 168 94 63 118 48 47 37 62 93 72 53 68 106 276 331 276 182 199 210 211 216 157 158 167 139 141 169 162 169 176 158 151 131 115 127 141 135 142 149 168 168 166 165 169
120 140 255 257 222 190 138 95 87 95 74 58 66 112 196 196 106 96 161 253 294 238 191 200 206 204 167 148 232 216 172 157 151 173 168 165 146 133 139 156 135 141 152 160 149 133 127 138 150
150 171 208 258 185 145 119 109 89 63 115 87 71 70 80 129 147 195 126 189 194 271 246 210 198 190 190 188 348 314 230 204 198 172 175 162 160 175 186 157 141 137 152 154 172 163 160 155 157
78 81 162 216 186 187 77 57 69 25 52 70 94 95 82 93 117 127 213 209 252 222 200 186 195 186 182 186 213 237 202 210 151 221 167 143 148 149 158 153 146 154 155 163 138 150 160 164 167
121 57 102 180 186 178 67 38 59 82 94 115 125 124 119 98 71 74 87 151 199 196 148 164 156 167 124 118 165 166 154 163 154 115 100 114 130 145 155 160 162 157 156 159 167 165 151 152 164
125 123 141 134 145 157 108 118 111 138 130 68 77 79 58 73 100 86 61 63 118 149 158 184 247 296 368 354 335 130 115 89 69 68 82 102 144 134 140 139 141 148 159 170 160 175 178 166 165
109 67 86 109 119 109 160 134 54 83 83 50 45 41 26 -62 -44 34 50 49 94 118 167 199 247 297 313 344 269 222 227 209 153 92 94 149 138 144 138 144 135 144 166 179 204 169 165 174 163

GFSSGP_con_3kmhel_063.txt.gz
Helicity
96 128 161 179 186 183 119 83 15 76 155 -4 99 70 48 93 139 107 85 86 126 80 39 34 28 20 3 -1 1 -3 -9 0 7 0 4 -3 -8 -7 9 24 40 42 36 23 10 3 -4 -2 -10
115 147 198 268 174 190 138 84 93 65 104 64 65 207 156 137 200 142 135 79 95 58 24 10 11 2 7 10 1 -13 -13 -6 -10 -10 -4 -5 -6 -10 -10 -3 3 5 4 -3 -9 -13 -15 -15 -22
116 149 234 303 222 145 90 120 32 51 112 138 72 78 101 208 198 90 79 52 85 36 1 -22 -11 -9 1 -3 -12 -18 -17 -19 -17 -16 -2 -8 -11 -15 -14 -17 -12 -9 -16 -14 -13 -11 -13 -19 -24
157 206 251 275 185 144 109 201 50 165 129 86 49 96 69 118 177 126 55 32 57 27 -3 -23 -24 -30 -34 -32 -30 -33 -31 -31 -25 -23 -4 -9 -13 -14 -14 -16 -18 -18 -20 -21 -18 -17 -16 -16 -16
141 257 299 260 183 110 25 157 165 243 147 103 136 49 45 82 176 101 36 12 77 63 27 -3 -6 -35 -54 -64 -71 -77 -66 -57 -54 -42 -28 -30 -26 -24 -26 -24 -26 -24 -24 -21 -18 -12 -3 -3 0
235 252 305 262 140 93 86 164 178 158 98 109 214 249 49 90 137 218 105 72 74 83 50 24 -5 -22 -40 -56 -69 -76 -81 -83 -92 -74 -33 -46 -35 -19 -13 -8 -10 -8 -7 -3 0 4 14 19 19
184 263 268 203 186 132 232 175 205 236 148 199 157 245 245 106 202 184 259 72 89 89 83 45 15 -6 -17 -36 -48 -47 -42 -53 -82 -60 -30 -28 -23 -19 -13 -2 4 4 10 10 14 18 19 26 29
166 208 226 204 215 153 160 111 75 209 249 185 203 153 270 261 149 80 156 91 73 75 88 81 54 25 5 -20 -26 -18 -4 -3 12 24 13 -8 3 8 13 3 16 26 30 33 38 39 37 34 38
145 234 215 206 250 185 178 152 99 150 206 260 182 137 168 235 130 68 152 129 86 43 50 78 62 38 29 15 -8 5 13 19 37 26 12 12 9 18 31 31 42 46 51 51 51 48 45 40 37
187 220 200 217 207 164 130 133 187 236 200 212 217 177 168 164 128 47 112 116 79 63 36 46 40 40 43 29 13 12 16 18 27 24 12 22 18 28 47 53 68 67 60 56 53 49 42 34 34
169 180 248 237 229 187 176 209 199 208 343 250 129 138 140 130 193 97 129 102 114 98 72 39 67 58 41 55 41 27 20 25 26 33 26 40 49 59 59 54 48 55 55 52 44 30 22 27 38
164 121 187 224 183 273 271 207 321 244 262 244 141 107 143 132 146 217 161 169 74 111 68 64 90 83 89 74 47 36 37 43 49 35 47 69 57 60 64 53 34 36 39 36 38 42 35 27 29
100 134 92 198 267 333 320 306 289 302 254 243 171 162 146 154 175 216 211 222 162 117 106 95 124 132 123 91 56 41 47 63 57 50 68 84 83 67 58 40 43 37 42 54 35 33 39 42 39
140 131 134 158 173 343 423 461 337 257 193 219 163 140 125 142 126 137 184 208 142 129 113 104 145 127 114 85 64 47 72 73 60 89 105 92 85 68 49 49 44 42 56 51 64 59 50 50 59
136 44 161 211 135 289 329 459 474 266 197 190 157 148 148 92 114 108 96 139 150 162 192 184 166 147 138 116 102 93 75 89 102 110 94 95 90 62 48 48 43 49 56 58 67 61 78 73 73
146 148 96 146 470 222 203 187 349 307 286 226 163 232 221 134 90 104 109 87 112 151 144 148 156 145 140 140 137 123 98 107 116 121 99 82 82 70 56 58 54 48 60 78 88 87 84 84 87
204 -27 122 154 73 87 177 195 196 104 94 99 144 155 159 174 134 93 105 99 86 119 118 133 137 137 107 109 128 114 86 91 133 125 99 81 86 68 67 65 57 68 86 99 101 97 91 88 85
163 93 80 101 98 80 199 157 176 41 59 36 82 97 128 99 119 90 65 87 65 99 124 120 118 118 94 108 120 147 136 143 117 117 87 70 69 62 73 73 67 75 103 109 114 102 101 108 106
121 132 95 82 10 84 74 101 110 90 69 72 57 96 82 125 74 93 91 73 76 98 119 123 130 125 154 167 158 138 132 115 96 85 59 63 63 56 83 83 74 123 113 106 109 120 108 110 137
60 44 67 35 -21 14 82 18 56 80 90 90 78 73 83 124 173 95 101 106 79 74 100 132 136 154 148 143 146 142 99 87 81 66 82 113 144 141 133 126 127 130 106 109 118 127 128 132 140
152 79 77 107 88 24 49 192 146 79 19 14 78 98 96 77 116 169 161 142 109 87 66 100 138 143 155 145 162 178 170 145 114 89 133 162 175 170 163 143 131 128 118 113 113 131 145 140 154
123 46 24 116 130 149 55 117 117 50 6 -60 -30 49 41 89 136 137 167 175 120 59 108 125 160 160 148 164 194 226 178 192 135 162 187 193 191 166 143 135 140 126 133 143 139 155 154 180 160
84 81 68 106 121 128 98 129 133 133 96 0 -59 -23 19 53 76 138 168 191 200 181 189 214 230 218 251 219 203 218 179 185 219 229 220 181 179 167 152 149 149 151 146 143 140 147 154 167 166
128 234 175 181 108 123 40 41 100 71 94 70 67 18 26 47 43 74 131 253 273 254 222 220 228 227 243 247 238 213 225 267 213 215 210 182 168 160 149 154 146 135 133 136 147 155 154 156 165
175 183 170 302 257 120 112 72 87 165 76 61 86 104 152 152 92 95 149 190 248 208 209 195 177 188 197 204 220 210 180 169 171 174 168 151 168 166 171 157 141 125 128 143 157 146 144 148 159
158 122 67 68 94 150 161 107 108 57 98 89 94 92 131 160 153 167 102 131 132 145 180 194 189 185 211 232 259 262 244 232 235 272 283 269 171 197 145 147 144 131 142 155 159 172 167 162 157
175 189 136 145 171 171 139 109 91 64 112 116 133 122 106 97 130 162 139 99 139 179 162 173 226 217 185 199 235 223 201 210 203 201 266 203 176 180 166 124 128 136 137 147 151 161 153 162 162
146 120 201 220 186 177 136 117 99 137 98 88 103 102 108 101 92 79 104 114 120 116 111 122 155 176 194 177 156 159 176 173 145 159 162 132 114 88 84 96 105 129 144 139 146 154 146 156 166
116 132 162 155 156 167 196 207 31 54 40 44 60 71 45 34 48 73 99 71 49 83 106 107 131 151 190 212 236 257 239 315 316 222 135 98 96 93 97 81 99 123 139 157 161 138 161 174 162
62 84 100 89 131 149 147 153 69 45 27 23 9 42 23 -20 -57 -38 -7 29 71 79 71 92 131 169 199 222 238 235 273 334 318 295 205 186 130 103 113 133 78 142 130 150 163 144 153 166 180

GFSSGP_con_3kmhel_069.txt.gz
Helicity
131 144 141 193 328 258 186 268 124 142 84 50 95 112 112 131 139 146 48 72 125 98 52 50 50 49 53 42 32 28 32 24 6 -5 -2 15 20 29 33 33 36 40 30 21 12 7 1 -10 -27
110 126 184 211 299 229 130 130 141 120 61 109 93 96 135 133 118 94 156 76 115 99 62 52 51 56 45 28 27 26 17 8 -1 -8 -10 12 28 33 32 34 25 13 3 -2 -5 -6 -12 -19 -25
161 119 225 230 266 204 122 161 113 99 108 104 191 50 67 99 118 105 147 86 118 85 69 46 51 45 30 19 19 21 3 2 -7 -14 -20 -9 13 17 10 8 -7 -14 -16 -19 -19 -19 -22 -20 -13
115 202 233 283 273 170 119 137 157 203 367 107 170 205 68 111 123 161 99 106 115 90 83 48 37 27 24 9 -4 -5 -15 -13 -16 -23 -26 -30 -27 -25 -23 -27 -26 -28 -29 -26 -20 -14 -18 -14 -6
120 201 212 197 244 131 159 166 155 188 203 129 145 227 68 141 153 129 130 134 98 85 82 53 32 21 10 -8 -27 -27 -30 -17 -20 -26 -32 -38 -42 -43 -45 -43 -43 -36 -26 -14 -9 -7 -7 -3 2
169 186 217 153 128 115 199 174 179 117 40 130 16 158 34 85 212 117 131 130 86 76 84 44 25 12 -3 -21 -40 -49 -39 -20 -31 -39 -45 -47 -50 -53 -52 -49 -42 -35 -21 -13 -5 -0 2 10 14
170 190 164 114 80 75 189 139 125 109 102 49 17 163 52 90 216 130 103 113 88 72 83 52 36 10 -13 -33 -50 -68 -71 -49 -64 -67 -67 -64 -58 -49 -39 -32 -27 -20 -15 -7 4 12 17 22 28
211 148 139 41 169 133 158 218 156 127 1 85 125 111 146 80 355 149 113 91 89 102 98 86 63 29 -2 -28 -50 -69 -86 -84 -76 -66 -58 -54 -53 -45 -26 -20 -13 3 12 15 21 24 24 26 26
233 229 77 103 138 153 183 242 319 189 325 297 153 32 77 92 -140 61 113 105 93 90 75 61 39 38 13 -8 -29 -40 -62 -50 -34 -42 -34 -28 -34 -20 -8 -9 10 16 28 33 34 29 30 29 30
256 201 141 193 152 174 136 209 224 214 234 274 258 154 101 78 66 52 118 87 68 68 77 71 54 49 34 22 3 -7 -14 -12 4 -5 -6 -6 -2 5 11 13 23 29 33 37 41 34 30 32 27
203 122 174 116 143 130 106 105 182 168 184 186 98 121 129 200 -41 -15 40 125 100 81 69 72 64 63 55 46 32 26 22 25 19 16 11 14 18 23 34 40 37 33 33 32 35 34 33 32 33
202 135 128 108 148 221 110 137 108 172 130 129 174 198 238 68 73 -0 62 65 38 55 71 61 68 65 61 72 50 38 43 41 36 27 27 39 41 34 36 40 42 45 37 35 36 38 33 34 36
155 103 75 202 182 154 190 217 95 137 130 127 176 156 174 132 114 101 90 160 163 257 82 70 61 52 51 76 77 65 53 46 38 49 41 52 53 52 54 42 45 38 36 36 32 36 34 34 35
102 120 119 165 237 237 262 277 237 157 199 171 123 115 120 85 147 137 198 171 177 214 112 -50 70 43 65 67 81 73 61 51 57 61 48 48 69 76 69 55 48 42 36 32 32 34 34 35 42
13 88 159 198 230 269 328 308 233 246 240 219 162 96 123 97 131 148 137 173 210 106 -79 -8 63 54 81 94 87 81 50 45 63 76 76 68 72 84 87 72 56 44 48 36 37 38 47 49 50
21 89 135 211 207 259 283 247 296 257 219 246 201 125 156 158 144 158 147 142 154 110 37 16 22 31 98 56 89 74 32 50 52 97 107 98 85 98 95 85 70 62 62 59 62 62 59 54 53
128 25 214 145 152 225 190 258 361 315 226 237 255 256 274 249 183 129 159 182 149 105 114 65 49 43 68 77 110 86 54 63 64 97 108 97 88 86 104 90 73 76 74 64 65 67 69 62 51
-18 -20 198 191 65 54 46 393 402 461 303 204 244 245 236 229 187 121 77 125 138 119 159 134 141 115 107 70 109 41 54 117 118 121 124 96 93 93 95 89 77 80 75 57 67 64 67 64 53
62 19 67 219 208 62 27 342 425 411 452 244 208 186 185 134 116 113 85 87 84 117 190 190 165 147 168 191 145 105 56 172 153 119 92 125 105 109 107 94 79 80 72 53 81 80 64 67 70
51 53 40 128 -33 48 76 100 152 334 360 196 174 144 130 123 112 85 66 102 101 61 89 123 131 125 150 159 193 205 204 157 149 126 115 118 115 111 115 92 74 68 75 72 79 82 77 68 82
29 68 76 97 132 137 86 165 86 88 282 180 155 125 113 101 92 82 82 49 75 91 77 63 82 102 94 152 239 247 170 154 155 146 137 135 108 111 105 81 83 93 94 90 96 105 110 104 111
99 59 -29 -113 -7 74 58 202 69 125 102 82 97 91 69 75 74 83 65 73 64 56 89 65 69 66 89 150 160 158 170 188 150 156 167 184 176 193 192 182 159 123 101 92 85 97 107 126 109
169 116 26 2 4 55 63 98 72 73 42 7 -28 28 55 51 64 71 62 50 55 35 81 95 77 78 79 118 142 153 144 147 158 189 156 169 182 155 156 115 78 83 94 95 117 103 105 124 123
114 119 167 98 138 96 61 56 96 83 56 36 20 29 48 69 65 64 63 62 73 105 117 134 121 91 90 90 148 173 147 170 196 235 184 250 330 289 185 121 157 178 156 135 121 120 122 132 136
91 72 105 104 86 153 87 80 111 161 175 133 104 102 113 89 65 53 50 60 57 77 85 110 122 117 118 116 116 132 131 142 170 227 237 296 295 240 271 191 138 148 103 102 127 121 126 137 143
77 39 61 89 109 124 98 100 117 119 113 107 122 101 104 116 120 119 98 68 56 70 63 88 120 135 108 127 106 95 88 148 195 255 264 228 180 228 181 189 113 101 113 121 129 145 129 106 108
87 58 69 94 116 111 90 100 49 90 132 125 122 136 154 152 151 161 157 112 87 75 65 62 86 107 125 134 106 77 79 84 138 168 177 190 188 163 135 138 119 118 121 192 148 127 109 109 108
67 46 94 137 143 132 105 91 47 61 67 99 148 151 157 167 183 186 181 178 145 100 75 68 67 65 79 81 77 85 105 137 146 169 169 160 136 163 168 177 213 185 153 150 120 97 83 100 77
118 94 101 60 93 114 156 111 105 53 103 129 121 137 135 132 129 122 134 147 147 127 109 94 71 60 59 71 81 88 100 131 153 205 217 209 170 169 207 182 159 140 128 143 126 134 120 117 109
92 85 64 65 55 94 80 104 122 120 129 135 134 117 115 115 99 86 80 69 60 62 66 63 43 35 37 51 68 82 110 120 129 168 204 215 211 198 179 171 146 126 128 132 125 143 142 133 133